Time,TemperatureF,DewpointF,PressureIn,WindDirection,WindDirectionDegrees,WindSpeedMPH,WindSpeedGustMPH,Humidity,HourlyPrecipIn,Conditions,Clouds,dailyrainin,SoftwareType,DateUTC
2013-07-07 00:01:00,81.7,74.9,30.08,SE,135,1.0,3.0,80,0.00,,,0.06,Wunderground v.1.15,2013-07-07 04:01:00,
2013-07-07 00:02:00,81.7,74.9,30.08,ESE,112,1.0,3.0,80,0.00,,,0.06,Wunderground v.1.15,2013-07-07 04:02:00,
2013-07-07 00:03:00,81.7,74.9,30.08,East,82,2.0,3.0,80,0.00,,,0.06,Wunderground v.1.15,2013-07-07 04:03:00,
2013-07-07 00:04:00,81.7,74.9,30.08,SE,129,2.0,3.0,80,0.00,,,0.06,Wunderground v.1.15,2013-07-07 04:04:00,
2013-07-07 00:05:00,81.7,74.5,30.08,SE,124,2.0,5.0,79,0.00,,,0.06,Wunderground v.1.15,2013-07-07 04:05:00,
2013-07-07 00:09:00,81.8,74.6,30.07,ESE,111,2.0,5.0,79,0.00,,,0.00,Wunderground v.1.15,2013-07-07 04:09:00,
2013-07-07 00:11:00,81.8,74.6,30.07,ESE,113,2.0,2.0,79,0.00,,,0.00,Wunderground v.1.15,2013-07-07 04:11:00,
2013-07-07 00:13:00,81.8,74.6,30.08,East,93,2.0,2.0,79,0.00,,,0.00,Wunderground v.1.15,2013-07-07 04:13:00,
2013-07-07 00:15:00,81.7,74.5,30.08,SSE,160,2.0,3.0,79,0.00,,,0.00,Wunderground v.1.15,2013-07-07 04:15:00,
2013-07-07 00:16:00,81.7,74.5,30.08,ESE,106,2.0,5.0,79,0.00,,,0.00,Wunderground v.1.15,2013-07-07 04:16:00,
2013-07-07 00:21:00,81.7,74.5,30.08,SSE,148,2.0,2.0,79,0.00,,,0.00,Wunderground v.1.15,2013-07-07 04:21:00,
2013-07-07 00:22:00,81.7,74.5,30.08,SE,140,2.0,5.0,79,0.00,,,0.00,Wunderground v.1.15,2013-07-07 04:22:00,
2013-07-07 00:24:00,81.7,74.5,30.08,SE,138,2.0,5.0,79,0.00,,,0.00,Wunderground v.1.15,2013-07-07 04:24:00,
2013-07-07 00:27:00,81.7,74.5,30.08,SE,134,1.0,5.0,79,0.00,,,0.00,Wunderground v.1.15,2013-07-07 04:27:00,
2013-07-07 00:29:00,81.6,74.5,30.08,ESE,117,1.0,5.0,79,0.00,,,0.00,Wunderground v.1.15,2013-07-07 04:29:00,
2013-07-07 00:31:00,81.6,74.5,30.08,East,82,1.0,7.0,79,0.00,,,0.00,Wunderground v.1.15,2013-07-07 04:31:00,
2013-07-07 00:33:00,81.6,74.5,30.08,East,94,1.0,7.0,79,0.00,,,0.00,Wunderground v.1.15,2013-07-07 04:33:00,
2013-07-07 00:35:00,81.5,74.4,30.08,ESE,102,1.0,7.0,79,0.00,,,0.00,Wunderground v.1.15,2013-07-07 04:35:00,
2013-07-07 00:36:00,81.5,74.4,30.08,ESE,115,1.0,7.0,79,0.00,,,0.00,Wunderground v.1.15,2013-07-07 04:36:00,
2013-07-07 00:42:00,81.5,74.4,30.08,ESE,111,1.0,7.0,79,0.00,,,0.00,Wunderground v.1.15,2013-07-07 04:42:00,
2013-07-07 00:43:00,81.4,74.3,30.08,East,98,1.0,7.0,79,0.00,,,0.00,Wunderground v.1.15,2013-07-07 04:43:00,
2013-07-07 00:46:00,81.4,74.3,30.08,ESE,105,1.0,7.0,79,0.00,,,0.00,Wunderground v.1.15,2013-07-07 04:46:00,
2013-07-07 00:47:00,81.4,74.3,30.07,ESE,121,1.0,7.0,79,0.00,,,0.00,Wunderground v.1.15,2013-07-07 04:47:00,
2013-07-07 00:48:00,81.3,74.2,30.08,SSE,148,1.0,7.0,79,0.00,,,0.00,Wunderground v.1.15,2013-07-07 04:48:00,
2013-07-07 00:50:00,81.3,74.2,30.08,East,98,1.0,7.0,79,0.00,,,0.00,Wunderground v.1.15,2013-07-07 04:50:00,
2013-07-07 00:52:00,81.2,74.1,30.07,ESE,104,1.0,7.0,79,0.00,,,0.00,Wunderground v.1.15,2013-07-07 04:52:00,
2013-07-07 00:53:00,81.2,74.1,30.08,SSE,156,1.0,7.0,79,0.00,,,0.00,Wunderground v.1.15,2013-07-07 04:53:00,
2013-07-07 00:55:00,81.2,74.1,30.07,SE,130,1.0,7.0,79,0.00,,,0.00,Wunderground v.1.15,2013-07-07 04:55:00,
2013-07-07 00:56:00,81.3,74.2,30.07,SE,145,1.0,7.0,79,0.00,,,0.00,Wunderground v.1.15,2013-07-07 04:56:00,
2013-07-07 01:00:00,81.3,74.2,30.07,East,92,2.0,2.0,79,0.00,,,0.00,Wunderground v.1.15,2013-07-07 05:00:00,
2013-07-07 01:02:00,81.3,74.2,30.07,ESE,103,2.0,2.0,79,0.00,,,0.00,Wunderground v.1.15,2013-07-07 05:02:00,
2013-07-07 01:04:00,81.3,74.2,30.07,East,85,2.0,2.0,79,0.00,,,0.00,Wunderground v.1.15,2013-07-07 05:04:00,
2013-07-07 01:06:00,81.2,74.1,30.07,SE,137,2.0,2.0,79,0.00,,,0.00,Wunderground v.1.15,2013-07-07 05:06:00,
2013-07-07 01:09:00,81.2,74.1,30.07,ENE,64,1.0,2.0,79,0.00,,,0.00,Wunderground v.1.15,2013-07-07 05:09:00,
2013-07-07 01:11:00,81.1,74.0,30.07,East,96,1.0,2.0,79,0.00,,,0.00,Wunderground v.1.15,2013-07-07 05:11:00,
2013-07-07 01:12:00,81.1,74.0,30.07,ENE,63,1.0,2.0,79,0.00,,,0.00,Wunderground v.1.15,2013-07-07 05:12:00,
2013-07-07 01:14:00,81.1,74.0,30.07,SE,137,1.0,2.0,79,0.00,,,0.00,Wunderground v.1.15,2013-07-07 05:14:00,
2013-07-07 01:17:00,81.0,73.9,30.06,East,83,1.0,2.0,79,0.00,,,0.00,Wunderground v.1.15,2013-07-07 05:17:00,
2013-07-07 01:18:00,81.0,73.9,30.07,East,82,1.0,2.0,79,0.00,,,0.00,Wunderground v.1.15,2013-07-07 05:18:00,
2013-07-07 01:22:00,81.0,73.9,30.06,East,81,1.0,2.0,79,0.00,,,0.00,Wunderground v.1.15,2013-07-07 05:22:00,
2013-07-07 01:23:00,81.0,73.9,30.06,ENE,69,1.0,2.0,79,0.00,,,0.00,Wunderground v.1.15,2013-07-07 05:23:00,
2013-07-07 01:24:00,81.0,73.9,30.06,East,96,1.0,2.0,79,0.00,,,0.00,Wunderground v.1.15,2013-07-07 05:24:00,
2013-07-07 01:30:00,80.8,74.0,30.06,East,94,1.0,1.0,80,0.00,,,0.00,Wunderground v.1.15,2013-07-07 05:30:00,
2013-07-07 01:31:00,80.8,74.0,30.06,East,101,1.0,5.0,80,0.00,,,0.00,Wunderground v.1.15,2013-07-07 05:31:00,
2013-07-07 01:33:00,80.7,74.0,30.06,ESE,103,1.0,5.0,80,0.00,,,0.00,Wunderground v.1.15,2013-07-07 05:33:00,
2013-07-07 01:37:00,80.7,74.0,30.06,East,84,0.0,5.0,80,0.00,,,0.00,Wunderground v.1.15,2013-07-07 05:37:00,
2013-07-07 01:38:00,80.6,73.9,30.06,East,93,0.0,5.0,80,0.00,,,0.00,Wunderground v.1.15,2013-07-07 05:38:00,
2013-07-07 01:39:00,80.6,73.9,30.06,East,94,0.0,5.0,80,0.00,,,0.00,Wunderground v.1.15,2013-07-07 05:39:00,
2013-07-07 01:41:00,80.6,73.9,30.06,ESE,118,0.0,5.0,80,0.00,,,0.00,Wunderground v.1.15,2013-07-07 05:41:00,
2013-07-07 01:42:00,80.5,73.8,30.06,SE,136,0.0,5.0,80,0.00,,,0.00,Wunderground v.1.15,2013-07-07 05:42:00,
2013-07-07 01:44:00,80.6,73.9,30.06,ENE,62,0.0,5.0,80,0.00,,,0.00,Wunderground v.1.15,2013-07-07 05:44:00,
2013-07-07 01:45:00,80.6,73.9,30.06,East,79,0.0,5.0,80,0.00,,,0.00,Wunderground v.1.15,2013-07-07 05:45:00,
2013-07-07 01:48:00,80.5,73.8,30.06,ESE,116,0.0,5.0,80,0.00,,,0.00,Wunderground v.1.15,2013-07-07 05:48:00,
2013-07-07 01:49:00,80.5,73.8,30.06,ESE,116,0.0,5.0,80,0.00,,,0.00,Wunderground v.1.15,2013-07-07 05:49:00,
2013-07-07 01:54:00,80.4,74.0,30.06,SE,133,0.0,5.0,81,0.00,,,0.00,Wunderground v.1.15,2013-07-07 05:54:00,
2013-07-07 01:55:00,80.4,74.0,30.06,SE,133,0.0,5.0,81,0.00,,,0.00,Wunderground v.1.15,2013-07-07 05:55:00,
2013-07-07 01:56:00,80.4,74.0,30.06,SE,133,0.0,5.0,81,0.00,,,0.00,Wunderground v.1.15,2013-07-07 05:56:00,
2013-07-07 01:59:00,80.4,74.0,30.06,SE,128,0.0,5.0,81,0.00,,,0.00,Wunderground v.1.15,2013-07-07 05:59:00,
2013-07-07 02:02:00,80.3,73.9,30.06,SSE,148,0.0,1.0,81,0.00,,,0.00,Wunderground v.1.15,2013-07-07 06:02:00,
2013-07-07 02:03:00,80.3,73.9,30.06,SE,126,0.0,1.0,81,0.00,,,0.00,Wunderground v.1.15,2013-07-07 06:03:00,
2013-07-07 02:04:00,80.3,73.9,30.06,ESE,115,0.0,1.0,81,0.00,,,0.00,Wunderground v.1.15,2013-07-07 06:04:00,
2013-07-07 02:06:00,80.3,73.9,30.06,SE,127,0.0,1.0,81,0.00,,,0.00,Wunderground v.1.15,2013-07-07 06:06:00,
2013-07-07 02:07:00,80.3,73.9,30.06,SE,127,0.0,1.0,81,0.00,,,0.00,Wunderground v.1.15,2013-07-07 06:07:00,
2013-07-07 02:11:00,80.2,73.8,30.05,East,101,0.0,0.0,81,0.00,,,0.00,Wunderground v.1.15,2013-07-07 06:11:00,
2013-07-07 02:12:00,80.2,73.8,30.05,East,101,0.0,0.0,81,0.00,,,0.00,Wunderground v.1.15,2013-07-07 06:12:00,
2013-07-07 02:13:00,80.2,73.8,30.05,East,101,0.0,0.0,81,0.00,,,0.00,Wunderground v.1.15,2013-07-07 06:13:00,
2013-07-07 02:15:00,80.1,73.7,30.05,East,101,0.0,0.0,81,0.00,,,0.00,Wunderground v.1.15,2013-07-07 06:15:00,
2013-07-07 02:17:00,80.1,73.7,30.05,East,101,0.0,0.0,81,0.00,,,0.00,Wunderground v.1.15,2013-07-07 06:17:00,
2013-07-07 02:19:00,80.0,73.6,30.05,East,98,0.0,0.0,81,0.00,,,0.00,Wunderground v.1.15,2013-07-07 06:19:00,
2013-07-07 02:21:00,80.0,73.6,30.05,East,98,0.0,0.0,81,0.00,,,0.00,Wunderground v.1.15,2013-07-07 06:21:00,
2013-07-07 02:24:00,79.9,73.9,30.05,East,98,0.0,0.0,82,0.00,,,0.00,Wunderground v.1.15,2013-07-07 06:24:00,
2013-07-07 02:26:00,79.8,73.8,30.05,East,98,0.0,0.0,82,0.00,,,0.00,Wunderground v.1.15,2013-07-07 06:26:00,
2013-07-07 02:27:00,79.7,73.7,30.05,East,98,0.0,0.0,82,0.00,,,0.00,Wunderground v.1.15,2013-07-07 06:27:00,
2013-07-07 02:29:00,79.7,73.7,30.04,East,98,0.0,1.0,82,0.00,,,0.00,Wunderground v.1.15,2013-07-07 06:29:00,
2013-07-07 02:32:00,79.6,74.0,30.04,East,98,0.0,6.0,83,0.00,,,0.01,Wunderground v.1.15,2013-07-07 06:32:00,
2013-07-07 02:33:00,79.6,74.3,30.04,East,98,0.0,6.0,84,0.00,,,0.01,Wunderground v.1.15,2013-07-07 06:33:00,
2013-07-07 02:35:00,79.5,74.6,30.04,SE,137,0.0,6.0,85,0.00,,,0.01,Wunderground v.1.15,2013-07-07 06:35:00,
2013-07-07 02:37:00,79.4,74.8,30.04,SE,138,0.0,6.0,86,0.10,,,0.02,Wunderground v.1.15,2013-07-07 06:37:00,
2013-07-07 02:39:00,79.3,74.7,30.04,SE,138,0.0,6.0,86,0.10,,,0.02,Wunderground v.1.15,2013-07-07 06:39:00,
2013-07-07 02:43:00,79.1,74.9,30.04,East,101,0.0,6.0,87,0.09,,,0.02,Wunderground v.1.15,2013-07-07 06:43:00,
2013-07-07 02:44:00,79.0,74.8,30.04,East,101,0.0,6.0,87,0.08,,,0.02,Wunderground v.1.15,2013-07-07 06:44:00,
2013-07-07 02:45:00,79.0,74.8,30.04,ESE,108,0.0,6.0,87,0.07,,,0.02,Wunderground v.1.15,2013-07-07 06:45:00,
2013-07-07 02:46:00,78.9,74.7,30.04,ENE,65,0.0,6.0,87,0.06,,,0.02,Wunderground v.1.15,2013-07-07 06:46:00,
2013-07-07 02:50:00,78.8,74.9,30.04,ESE,114,1.0,6.0,88,0.04,,,0.03,Wunderground v.1.15,2013-07-07 06:50:00,
2013-07-07 02:51:00,78.8,74.9,30.04,East,99,1.0,6.0,88,0.79,,,0.04,Wunderground v.1.15,2013-07-07 06:51:00,
2013-07-07 02:53:00,78.6,75.1,30.05,SE,132,1.0,6.0,89,0.21,,,0.04,Wunderground v.1.15,2013-07-07 06:53:00,
2013-07-07 02:56:00,78.4,74.9,30.04,ESE,110,1.0,6.0,89,0.11,,,0.04,Wunderground v.1.15,2013-07-07 06:56:00,
2013-07-07 02:58:00,78.3,75.1,30.05,ESE,119,1.0,6.0,90,0.08,,,0.04,Wunderground v.1.15,2013-07-07 06:58:00,
2013-07-07 02:59:00,78.3,75.1,30.05,ESE,119,1.0,6.0,90,0.07,,,0.04,Wunderground v.1.15,2013-07-07 06:59:00,
2013-07-07 03:00:00,78.2,75.0,30.05,ESE,119,1.0,1.0,90,0.06,,,0.04,Wunderground v.1.15,2013-07-07 07:00:00,
2013-07-07 03:01:00,78.2,75.0,30.04,ESE,119,1.0,1.0,90,0.06,,,0.04,Wunderground v.1.15,2013-07-07 07:01:00,
2013-07-07 03:02:00,78.1,74.9,30.05,ESE,119,1.0,1.0,90,0.05,,,0.04,Wunderground v.1.15,2013-07-07 07:02:00,
2013-07-07 03:04:00,78.1,75.3,30.04,ESE,119,0.0,1.0,91,0.04,,,0.04,Wunderground v.1.15,2013-07-07 07:04:00,
2013-07-07 03:07:00,77.9,75.1,30.04,North,7,0.0,1.0,91,0.04,,,0.04,Wunderground v.1.15,2013-07-07 07:07:00,
2013-07-07 03:08:00,77.9,75.1,30.04,NNE,26,0.0,1.0,91,0.00,,,0.04,Wunderground v.1.15,2013-07-07 07:08:00,
2013-07-07 03:09:00,77.9,75.1,30.04,NE,51,0.0,1.0,91,0.00,,,0.04,Wunderground v.1.15,2013-07-07 07:09:00,
2013-07-07 03:11:00,77.8,75.0,30.04,NE,51,0.0,0.0,91,0.00,,,0.04,Wunderground v.1.15,2013-07-07 07:11:00,
2013-07-07 03:13:00,77.8,75.0,30.04,NE,51,0.0,0.0,91,0.00,,,0.04,Wunderground v.1.15,2013-07-07 07:13:00,
2013-07-07 03:15:00,77.8,75.3,30.04,East,79,0.0,0.0,92,0.00,,,0.04,Wunderground v.1.15,2013-07-07 07:15:00,
2013-07-07 03:16:00,77.8,75.3,30.04,NE,56,0.0,0.0,92,0.00,,,0.04,Wunderground v.1.15,2013-07-07 07:16:00,
2013-07-07 03:18:00,77.8,75.3,30.04,NE,56,0.0,0.0,92,0.00,,,0.04,Wunderground v.1.15,2013-07-07 07:18:00,
2013-07-07 03:19:00,77.8,75.3,30.04,East,87,0.0,1.0,92,0.00,,,0.04,Wunderground v.1.15,2013-07-07 07:19:00,
2013-07-07 03:23:00,77.7,75.2,30.04,East,87,0.0,0.0,92,0.00,,,0.04,Wunderground v.1.15,2013-07-07 07:23:00,
2013-07-07 03:24:00,77.7,75.2,30.04,East,87,0.0,0.0,92,0.00,,,0.04,Wunderground v.1.15,2013-07-07 07:24:00,
2013-07-07 03:26:00,77.7,75.2,30.04,East,87,0.0,0.0,92,0.00,,,0.04,Wunderground v.1.15,2013-07-07 07:26:00,
2013-07-07 03:30:00,77.7,75.2,30.04,East,87,0.0,0.0,92,0.00,,,0.04,Wunderground v.1.15,2013-07-07 07:30:00,
2013-07-07 03:31:00,77.7,75.2,30.04,East,87,0.0,2.0,92,0.00,,,0.04,Wunderground v.1.15,2013-07-07 07:31:00,
2013-07-07 03:36:00,77.6,75.1,30.04,East,87,0.0,2.0,92,0.00,,,0.04,Wunderground v.1.15,2013-07-07 07:36:00,
2013-07-07 03:37:00,77.6,75.4,30.04,East,87,0.0,2.0,93,0.00,,,0.04,Wunderground v.1.15,2013-07-07 07:37:00,
2013-07-07 03:40:00,77.6,75.4,30.04,East,87,0.0,2.0,93,0.00,,,0.04,Wunderground v.1.15,2013-07-07 07:40:00,
2013-07-07 03:43:00,77.5,75.3,30.04,East,87,0.0,2.0,93,0.00,,,0.04,Wunderground v.1.15,2013-07-07 07:43:00,
2013-07-07 03:44:00,77.5,75.3,30.04,East,87,0.0,2.0,93,0.00,,,0.04,Wunderground v.1.15,2013-07-07 07:44:00,
2013-07-07 03:45:00,77.5,75.3,30.04,East,86,0.0,2.0,93,0.00,,,0.04,Wunderground v.1.15,2013-07-07 07:45:00,
2013-07-07 03:46:00,77.4,75.2,30.04,East,86,0.0,2.0,93,0.00,,,0.04,Wunderground v.1.15,2013-07-07 07:46:00,
2013-07-07 03:48:00,77.4,75.2,30.04,East,86,0.0,2.0,93,0.00,,,0.04,Wunderground v.1.15,2013-07-07 07:48:00,
2013-07-07 03:50:00,77.4,75.2,30.04,East,86,0.0,2.0,93,0.00,,,0.04,Wunderground v.1.15,2013-07-07 07:50:00,
2013-07-07 03:52:00,77.4,75.2,30.04,East,86,0.0,2.0,93,0.00,,,0.04,Wunderground v.1.15,2013-07-07 07:52:00,
2013-07-07 03:53:00,77.4,75.2,30.04,East,86,0.0,2.0,93,0.00,,,0.04,Wunderground v.1.15,2013-07-07 07:53:00,
2013-07-07 03:55:00,77.4,75.2,30.04,East,80,0.0,2.0,93,0.00,,,0.04,Wunderground v.1.15,2013-07-07 07:55:00,
2013-07-07 03:56:00,77.3,75.1,30.04,East,81,0.0,2.0,93,0.00,,,0.04,Wunderground v.1.15,2013-07-07 07:56:00,
2013-07-07 03:58:00,77.3,75.1,30.04,East,81,0.0,2.0,93,0.00,,,0.04,Wunderground v.1.15,2013-07-07 07:58:00,
2013-07-07 04:01:00,77.3,74.8,30.04,East,97,0.0,0.0,92,0.00,,,0.04,Wunderground v.1.15,2013-07-07 08:01:00,
2013-07-07 04:03:00,77.3,74.8,30.04,East,97,0.0,0.0,92,0.00,,,0.04,Wunderground v.1.15,2013-07-07 08:03:00,
2013-07-07 04:04:00,77.3,74.8,30.04,East,97,0.0,0.0,92,0.00,,,0.04,Wunderground v.1.15,2013-07-07 08:04:00,
2013-07-07 04:05:00,77.3,74.8,30.04,East,97,0.0,0.0,92,0.00,,,0.04,Wunderground v.1.15,2013-07-07 08:05:00,
2013-07-07 04:06:00,77.3,74.8,30.04,East,97,0.0,0.0,92,0.00,,,0.04,Wunderground v.1.15,2013-07-07 08:06:00,
2013-07-07 04:09:00,77.2,74.7,30.04,East,97,0.0,0.0,92,0.00,,,0.04,Wunderground v.1.15,2013-07-07 08:09:00,
2013-07-07 04:11:00,77.2,74.7,30.04,East,97,0.0,0.0,92,0.00,,,0.04,Wunderground v.1.15,2013-07-07 08:11:00,
2013-07-07 04:13:00,77.2,74.7,30.03,East,97,0.0,0.0,92,0.00,,,0.04,Wunderground v.1.15,2013-07-07 08:13:00,
2013-07-07 04:15:00,77.1,74.6,30.04,East,82,0.0,0.0,92,0.00,,,0.04,Wunderground v.1.15,2013-07-07 08:15:00,
2013-07-07 04:18:00,77.1,74.6,30.03,East,83,0.0,0.0,92,0.00,,,0.04,Wunderground v.1.15,2013-07-07 08:18:00,
2013-07-07 04:19:00,77.1,74.6,30.03,East,85,0.0,0.0,92,0.00,,,0.04,Wunderground v.1.15,2013-07-07 08:19:00,
2013-07-07 04:22:00,77.2,74.7,30.03,East,99,0.0,0.0,92,0.00,,,0.04,Wunderground v.1.15,2013-07-07 08:22:00,
2013-07-07 04:23:00,77.2,74.7,30.03,East,93,0.0,0.0,92,0.00,,,0.04,Wunderground v.1.15,2013-07-07 08:23:00,
2013-07-07 04:25:00,77.2,74.7,30.03,East,86,0.0,0.0,92,0.00,,,0.04,Wunderground v.1.15,2013-07-07 08:25:00,
2013-07-07 04:26:00,77.2,74.7,30.03,East,87,0.0,0.0,92,0.00,,,0.04,Wunderground v.1.15,2013-07-07 08:26:00,
2013-07-07 04:29:00,77.2,74.7,30.03,East,83,0.0,1.0,92,0.00,,,0.04,Wunderground v.1.15,2013-07-07 08:29:00,
2013-07-07 04:30:00,77.2,74.7,30.03,East,79,0.0,0.0,92,0.00,,,0.04,Wunderground v.1.15,2013-07-07 08:30:00,
2013-07-07 04:31:00,77.2,74.7,30.03,East,79,0.0,2.0,92,0.00,,,0.04,Wunderground v.1.15,2013-07-07 08:31:00,
2013-07-07 04:33:00,77.2,74.7,30.03,East,83,0.0,2.0,92,0.00,,,0.04,Wunderground v.1.15,2013-07-07 08:33:00,
2013-07-07 04:34:00,77.2,74.7,30.03,East,83,0.0,2.0,92,0.00,,,0.04,Wunderground v.1.15,2013-07-07 08:34:00,
2013-07-07 04:36:00,77.2,74.7,30.03,ESE,103,0.0,2.0,92,0.00,,,0.04,Wunderground v.1.15,2013-07-07 08:36:00,
2013-07-07 04:37:00,77.2,74.7,30.03,ESE,102,0.0,2.0,92,0.00,,,0.04,Wunderground v.1.15,2013-07-07 08:37:00,
2013-07-07 04:40:00,77.3,74.8,30.03,ENE,78,0.0,2.0,92,0.00,,,0.04,Wunderground v.1.15,2013-07-07 08:40:00,
2013-07-07 04:42:00,77.3,74.8,30.03,East,84,0.0,2.0,92,0.00,,,0.04,Wunderground v.1.15,2013-07-07 08:42:00,
2013-07-07 04:43:00,77.4,74.9,30.03,East,85,0.0,2.0,92,0.00,,,0.04,Wunderground v.1.15,2013-07-07 08:43:00,
2013-07-07 04:48:00,77.5,75.0,30.03,East,92,0.0,2.0,92,0.00,,,0.04,Wunderground v.1.15,2013-07-07 08:48:00,
2013-07-07 04:50:00,77.4,74.9,30.03,East,87,0.0,2.0,92,0.00,,,0.04,Wunderground v.1.15,2013-07-07 08:50:00,
2013-07-07 04:52:00,77.4,74.9,30.03,ENE,68,0.0,2.0,92,0.00,,,0.04,Wunderground v.1.15,2013-07-07 08:52:00,
2013-07-07 04:54:00,77.5,75.0,30.03,ENE,77,1.0,2.0,92,0.00,,,0.04,Wunderground v.1.15,2013-07-07 08:54:00,
2013-07-07 04:55:00,77.5,75.0,30.03,East,92,1.0,2.0,92,0.00,,,0.04,Wunderground v.1.15,2013-07-07 08:55:00,
2013-07-07 04:56:00,77.5,75.0,30.03,ENE,69,1.0,2.0,92,0.00,,,0.04,Wunderground v.1.15,2013-07-07 08:56:00,
2013-07-07 05:00:00,77.6,74.8,30.03,ESE,105,1.0,1.0,91,0.00,,,0.04,Wunderground v.1.15,2013-07-07 09:00:00,
2013-07-07 05:01:00,77.6,74.8,30.03,ENE,70,1.0,1.0,91,0.00,,,0.04,Wunderground v.1.15,2013-07-07 09:01:00,
2013-07-07 05:03:00,77.7,74.9,30.03,East,83,1.0,2.0,91,0.00,,,0.04,Wunderground v.1.15,2013-07-07 09:03:00,
2013-07-07 05:05:00,77.7,74.9,30.03,ESE,110,1.0,2.0,91,0.00,,,0.04,Wunderground v.1.15,2013-07-07 09:05:00,
2013-07-07 05:07:00,77.7,74.9,30.03,ENE,77,1.0,2.0,91,0.00,,,0.04,Wunderground v.1.15,2013-07-07 09:07:00,
2013-07-07 05:10:00,77.7,74.9,30.03,ESE,108,1.0,1.0,91,0.00,,,0.04,Wunderground v.1.15,2013-07-07 09:10:00,
2013-07-07 05:13:00,77.8,74.6,30.03,ESE,122,1.0,2.0,90,0.00,,,0.04,Wunderground v.1.15,2013-07-07 09:13:00,
2013-07-07 05:14:00,77.8,74.6,30.03,ENE,77,1.0,2.0,90,0.00,,,0.04,Wunderground v.1.15,2013-07-07 09:14:00,
2013-07-07 05:15:00,77.8,74.6,30.03,East,80,1.0,2.0,90,0.00,,,0.04,Wunderground v.1.15,2013-07-07 09:15:00,
2013-07-07 05:18:00,77.8,74.6,30.03,ENE,70,1.0,2.0,90,0.00,,,0.04,Wunderground v.1.15,2013-07-07 09:18:00,
2013-07-07 05:20:00,77.8,74.6,30.03,East,96,1.0,1.0,90,0.00,,,0.04,Wunderground v.1.15,2013-07-07 09:20:00,
2013-07-07 05:23:00,77.9,74.7,30.03,ENE,75,1.0,2.0,90,0.00,,,0.04,Wunderground v.1.15,2013-07-07 09:23:00,
2013-07-07 05:24:00,77.9,74.7,30.03,ESE,118,1.0,2.0,90,0.00,,,0.04,Wunderground v.1.15,2013-07-07 09:24:00,
2013-07-07 05:26:00,77.9,74.4,30.02,ENE,77,1.0,2.0,89,0.00,,,0.04,Wunderground v.1.15,2013-07-07 09:26:00,
2013-07-07 05:27:00,77.9,74.4,30.03,ENE,77,1.0,2.0,89,0.00,,,0.04,Wunderground v.1.15,2013-07-07 09:27:00,
2013-07-07 05:29:00,77.9,74.4,30.03,East,82,1.0,2.0,89,0.00,,,0.04,Wunderground v.1.15,2013-07-07 09:29:00,
2013-07-07 05:30:00,77.9,74.4,30.03,East,95,1.0,1.0,89,0.00,,,0.04,Wunderground v.1.15,2013-07-07 09:30:00,
2013-07-07 05:33:00,77.9,74.4,30.03,East,96,0.0,2.0,89,0.00,,,0.04,Wunderground v.1.15,2013-07-07 09:33:00,
2013-07-07 05:34:00,77.8,74.3,30.03,East,96,0.0,2.0,89,0.00,,,0.04,Wunderground v.1.15,2013-07-07 09:34:00,
2013-07-07 05:37:00,77.7,74.2,30.03,East,96,0.0,2.0,89,0.00,,,0.04,Wunderground v.1.15,2013-07-07 09:37:00,
2013-07-07 05:40:00,77.6,74.4,30.03,East,96,0.0,2.0,90,0.00,,,0.04,Wunderground v.1.15,2013-07-07 09:40:00,
2013-07-07 05:42:00,77.6,74.4,30.03,ENE,58,0.0,2.0,90,0.00,,,0.04,Wunderground v.1.15,2013-07-07 09:42:00,
2013-07-07 05:43:00,77.6,74.4,30.03,ENE,58,0.0,2.0,90,0.00,,,0.04,Wunderground v.1.15,2013-07-07 09:43:00,
2013-07-07 05:46:00,77.5,74.3,30.03,ENE,77,0.0,2.0,90,0.00,,,0.04,Wunderground v.1.15,2013-07-07 09:46:00,
2013-07-07 05:47:00,77.5,74.3,30.03,ENE,77,0.0,2.0,90,0.00,,,0.04,Wunderground v.1.15,2013-07-07 09:47:00,
2013-07-07 05:48:00,77.5,74.3,30.03,East,79,0.0,2.0,90,0.00,,,0.04,Wunderground v.1.15,2013-07-07 09:48:00,
2013-07-07 05:49:00,77.5,74.3,30.03,East,81,0.0,2.0,90,0.00,,,0.04,Wunderground v.1.15,2013-07-07 09:49:00,
2013-07-07 05:52:00,77.5,74.3,30.03,East,81,0.0,2.0,90,0.00,,,0.04,Wunderground v.1.15,2013-07-07 09:52:00,
2013-07-07 05:53:00,77.4,74.2,30.03,East,80,0.0,2.0,90,0.00,,,0.04,Wunderground v.1.15,2013-07-07 09:53:00,
2013-07-07 05:56:00,77.4,74.2,30.03,East,80,0.0,2.0,90,0.00,,,0.04,Wunderground v.1.15,2013-07-07 09:56:00,
2013-07-07 05:58:00,77.4,74.2,30.03,East,80,0.0,2.0,90,0.00,,,0.04,Wunderground v.1.15,2013-07-07 09:58:00,
2013-07-07 06:01:00,77.3,74.1,30.03,ENE,75,0.0,0.0,90,0.00,,,0.04,Wunderground v.1.15,2013-07-07 10:01:00,
2013-07-07 06:02:00,77.3,74.1,30.03,East,80,0.0,0.0,90,0.00,,,0.04,Wunderground v.1.15,2013-07-07 10:02:00,
2013-07-07 06:07:00,77.2,74.0,30.03,ESE,111,0.0,0.0,90,0.00,,,0.04,Wunderground v.1.15,2013-07-07 10:07:00,
2013-07-07 06:08:00,77.2,74.0,30.03,East,82,0.0,0.0,90,0.00,,,0.04,Wunderground v.1.15,2013-07-07 10:08:00,
2013-07-07 06:09:00,77.2,74.0,30.03,East,101,0.0,0.0,90,0.00,,,0.04,Wunderground v.1.15,2013-07-07 10:09:00,
2013-07-07 06:10:00,77.2,74.0,30.03,East,101,0.0,0.0,90,0.00,,,0.04,Wunderground v.1.15,2013-07-07 10:10:00,
2013-07-07 06:11:00,77.2,74.0,30.03,East,101,0.0,0.0,90,0.00,,,0.04,Wunderground v.1.15,2013-07-07 10:11:00,
2013-07-07 06:16:00,77.2,74.0,30.03,East,89,0.0,1.0,90,0.00,,,0.04,Wunderground v.1.15,2013-07-07 10:16:00,
2013-07-07 06:17:00,77.1,73.9,30.03,East,89,0.0,1.0,90,0.00,,,0.04,Wunderground v.1.15,2013-07-07 10:17:00,
2013-07-07 06:19:00,77.1,73.9,30.03,East,89,0.0,1.0,90,0.00,,,0.04,Wunderground v.1.15,2013-07-07 10:19:00,
2013-07-07 06:22:00,77.0,73.8,30.03,East,89,0.0,0.0,90,0.00,,,0.04,Wunderground v.1.15,2013-07-07 10:22:00,
2013-07-07 06:23:00,77.0,73.8,30.03,East,89,0.0,0.0,90,0.00,,,0.04,Wunderground v.1.15,2013-07-07 10:23:00,
2013-07-07 06:24:00,77.0,73.8,30.03,East,89,0.0,0.0,90,0.00,,,0.04,Wunderground v.1.15,2013-07-07 10:24:00,
2013-07-07 06:25:00,77.0,73.8,30.03,East,89,0.0,0.0,90,0.00,,,0.04,Wunderground v.1.15,2013-07-07 10:25:00,
2013-07-07 06:29:00,77.0,73.8,30.03,ENE,78,0.0,0.0,90,0.00,,,0.04,Wunderground v.1.15,2013-07-07 10:29:00,
2013-07-07 06:30:00,77.1,73.9,30.03,ENE,78,0.0,0.0,90,0.00,,,0.04,Wunderground v.1.15,2013-07-07 10:30:00,
2013-07-07 06:32:00,77.1,73.9,30.03,ENE,78,0.0,3.0,90,0.00,,,0.04,Wunderground v.1.15,2013-07-07 10:32:00,
2013-07-07 06:33:00,77.1,73.9,30.03,East,79,0.0,3.0,90,0.00,,,0.04,Wunderground v.1.15,2013-07-07 10:33:00,
2013-07-07 06:38:00,77.2,74.0,30.03,ESE,104,0.0,3.0,90,0.00,,,0.04,Wunderground v.1.15,2013-07-07 10:38:00,
2013-07-07 06:39:00,77.2,74.0,30.03,East,79,0.0,3.0,90,0.00,,,0.04,Wunderground v.1.15,2013-07-07 10:39:00,
2013-07-07 06:42:00,77.2,74.0,30.03,East,87,0.0,3.0,90,0.00,,,0.04,Wunderground v.1.15,2013-07-07 10:42:00,
2013-07-07 06:43:00,77.2,74.0,30.03,ESE,102,0.0,3.0,90,0.00,,,0.04,Wunderground v.1.15,2013-07-07 10:43:00,
2013-07-07 06:46:00,77.2,74.0,30.03,East,91,0.0,3.0,90,0.00,,,0.04,Wunderground v.1.15,2013-07-07 10:46:00,
2013-07-07 06:47:00,77.3,74.1,30.03,East,91,0.0,3.0,90,0.00,,,0.04,Wunderground v.1.15,2013-07-07 10:47:00,
2013-07-07 06:48:00,77.3,74.1,30.03,East,86,0.0,3.0,90,0.00,,,0.04,Wunderground v.1.15,2013-07-07 10:48:00,
2013-07-07 06:49:00,77.3,74.1,30.03,ESE,103,0.0,3.0,90,0.00,,,0.04,Wunderground v.1.15,2013-07-07 10:49:00,
2013-07-07 06:52:00,77.3,74.1,30.03,ESE,102,0.0,3.0,90,0.00,,,0.04,Wunderground v.1.15,2013-07-07 10:52:00,
2013-07-07 06:55:00,77.4,74.2,30.04,East,79,0.0,3.0,90,0.00,,,0.04,Wunderground v.1.15,2013-07-07 10:55:00,
2013-07-07 06:56:00,77.4,74.2,30.04,East,90,0.0,3.0,90,0.00,,,0.04,Wunderground v.1.15,2013-07-07 10:56:00,
2013-07-07 06:58:00,77.5,74.3,30.04,ESE,120,0.0,3.0,90,0.00,,,0.04,Wunderground v.1.15,2013-07-07 10:58:00,
2013-07-07 07:01:00,77.5,74.3,30.04,ESE,105,0.0,0.0,90,0.00,,,0.04,Wunderground v.1.15,2013-07-07 11:01:00,
2013-07-07 07:02:00,77.6,74.1,30.04,ESE,105,0.0,0.0,89,0.00,,,0.04,Wunderground v.1.15,2013-07-07 11:02:00,
2013-07-07 07:05:00,77.7,74.2,30.04,East,101,0.0,0.0,89,0.00,,,0.04,Wunderground v.1.15,2013-07-07 11:05:00,
2013-07-07 07:06:00,77.7,74.2,30.04,East,101,0.0,0.0,89,0.00,,,0.04,Wunderground v.1.15,2013-07-07 11:06:00,
2013-07-07 07:07:00,77.7,74.2,30.04,East,100,0.0,0.0,89,0.00,,,0.04,Wunderground v.1.15,2013-07-07 11:07:00,
2013-07-07 07:09:00,77.7,74.2,30.04,East,95,0.0,1.0,89,0.00,,,0.04,Wunderground v.1.15,2013-07-07 11:09:00,
2013-07-07 07:11:00,77.9,74.4,30.04,East,83,0.0,2.0,89,0.00,,,0.04,Wunderground v.1.15,2013-07-07 11:11:00,
2013-07-07 07:13:00,78.1,74.6,30.04,East,79,0.0,2.0,89,0.00,,,0.04,Wunderground v.1.15,2013-07-07 11:13:00,
2013-07-07 07:14:00,78.2,74.7,30.04,East,85,0.0,2.0,89,0.00,,,0.04,Wunderground v.1.15,2013-07-07 11:14:00,
2013-07-07 07:20:00,78.9,75.0,30.04,ENE,71,1.0,2.0,88,0.00,,,0.04,Wunderground v.1.15,2013-07-07 11:20:00,
2013-07-07 07:22:00,79.2,75.0,30.05,ENE,72,1.0,2.0,87,0.00,,,0.04,Wunderground v.1.15,2013-07-07 11:22:00,
2013-07-07 07:23:00,79.3,75.1,30.05,ENE,72,1.0,2.0,87,0.00,,,0.04,Wunderground v.1.15,2013-07-07 11:23:00,
2013-07-07 07:26:00,79.7,75.1,30.05,ENE,69,1.0,2.0,86,0.00,,,0.04,Wunderground v.1.15,2013-07-07 11:26:00,
2013-07-07 07:28:00,79.9,75.3,30.05,ENE,78,1.0,2.0,86,0.00,,,0.04,Wunderground v.1.15,2013-07-07 11:28:00,
2013-07-07 07:32:00,80.2,75.6,30.05,ENE,70,1.0,2.0,86,0.00,,,0.04,Wunderground v.1.15,2013-07-07 11:32:00,
2013-07-07 07:33:00,80.3,75.7,30.05,East,79,1.0,2.0,86,0.00,,,0.04,Wunderground v.1.15,2013-07-07 11:33:00,
2013-07-07 07:35:00,80.5,75.6,30.05,ENE,75,1.0,2.0,85,0.00,,,0.04,Wunderground v.1.15,2013-07-07 11:35:00,
2013-07-07 07:38:00,80.7,75.8,30.05,ENE,68,1.0,4.0,85,0.00,,,0.04,Wunderground v.1.15,2013-07-07 11:38:00,
2013-07-07 07:41:00,80.9,75.6,30.05,ENE,66,2.0,3.0,84,0.00,,,0.04,Wunderground v.1.15,2013-07-07 11:41:00,
2013-07-07 07:43:00,81.0,75.3,30.05,ENE,70,2.0,4.0,83,0.00,,,0.04,Wunderground v.1.15,2013-07-07 11:43:00,
2013-07-07 07:44:00,81.1,75.4,30.05,ESE,105,2.0,4.0,83,0.00,,,0.04,Wunderground v.1.15,2013-07-07 11:44:00,
2013-07-07 07:45:00,81.1,75.4,30.05,ENE,66,2.0,5.0,83,0.00,,,0.04,Wunderground v.1.15,2013-07-07 11:45:00,
2013-07-07 07:47:00,81.3,75.3,30.05,ENE,67,3.0,5.0,82,0.00,,,0.04,Wunderground v.1.15,2013-07-07 11:47:00,
2013-07-07 07:49:00,81.4,75.4,30.05,ESE,116,3.0,5.0,82,0.00,,,0.04,Wunderground v.1.15,2013-07-07 11:49:00,
2013-07-07 07:51:00,81.5,75.1,30.05,East,99,3.0,3.0,81,0.00,,,0.04,Wunderground v.1.15,2013-07-07 11:51:00,
2013-07-07 07:53:00,81.7,74.9,30.05,ESE,122,3.0,4.0,80,0.00,,,0.04,Wunderground v.1.15,2013-07-07 11:53:00,
2013-07-07 07:54:00,81.7,74.9,30.05,SE,146,3.0,4.0,80,0.00,,,0.04,Wunderground v.1.15,2013-07-07 11:54:00,
2013-07-07 07:56:00,81.9,75.1,30.05,SE,143,3.0,4.0,80,0.00,,,0.04,Wunderground v.1.15,2013-07-07 11:56:00,
2013-07-07 07:59:00,82.0,74.8,30.05,East,81,3.0,5.0,79,0.00,,,0.04,Wunderground v.1.15,2013-07-07 11:59:00,
2013-07-07 08:00:00,82.1,75.3,30.05,ENE,68,3.0,4.0,80,0.00,,,0.04,Wunderground v.1.15,2013-07-07 12:00:00,
2013-07-07 08:02:00,82.2,75.0,30.05,NE,55,3.0,4.0,79,0.00,,,0.04,Wunderground v.1.15,2013-07-07 12:02:00,
2013-07-07 08:03:00,82.2,75.0,30.05,ENE,78,3.0,4.0,79,0.00,,,0.04,Wunderground v.1.15,2013-07-07 12:03:00,
2013-07-07 08:04:00,82.3,75.1,30.05,NE,56,2.0,5.0,79,0.00,,,0.04,Wunderground v.1.15,2013-07-07 12:04:00,
2013-07-07 08:06:00,82.4,75.2,30.05,ESE,112,2.0,5.0,79,0.00,,,0.04,Wunderground v.1.15,2013-07-07 12:06:00,
2013-07-07 08:08:00,82.5,74.9,30.05,SE,127,2.0,5.0,78,0.00,,,0.04,Wunderground v.1.15,2013-07-07 12:08:00,
2013-07-07 08:11:00,82.7,75.5,30.06,East,83,2.0,3.0,79,0.00,,,0.04,Wunderground v.1.15,2013-07-07 12:11:00,
2013-07-07 08:13:00,82.9,75.3,30.06,NNE,27,2.0,3.0,78,0.00,,,0.04,Wunderground v.1.15,2013-07-07 12:13:00,
2013-07-07 08:14:00,83.0,75.4,30.06,ENE,70,2.0,4.0,78,0.00,,,0.04,Wunderground v.1.15,2013-07-07 12:14:00,
2013-07-07 08:15:00,83.0,75.4,30.06,East,79,2.0,4.0,78,0.00,,,0.04,Wunderground v.1.15,2013-07-07 12:15:00,
2013-07-07 08:17:00,83.1,75.1,30.06,SSE,163,2.0,4.0,77,0.00,,,0.04,Wunderground v.1.15,2013-07-07 12:17:00,
2013-07-07 08:19:00,83.1,75.1,30.06,East,91,2.0,4.0,77,0.00,,,0.04,Wunderground v.1.15,2013-07-07 12:19:00,
2013-07-07 08:21:00,83.1,74.7,30.06,ENE,58,3.0,5.0,76,0.00,,,0.04,Wunderground v.1.15,2013-07-07 12:21:00,
2013-07-07 08:23:00,83.2,74.8,30.06,East,94,4.0,5.0,76,0.00,,,0.04,Wunderground v.1.15,2013-07-07 12:23:00,
2013-07-07 08:26:00,83.3,74.9,30.06,ESE,108,4.0,6.0,76,0.00,,,0.04,Wunderground v.1.15,2013-07-07 12:26:00,
2013-07-07 08:27:00,83.3,74.9,30.06,ENE,69,4.0,6.0,76,0.00,,,0.04,Wunderground v.1.15,2013-07-07 12:27:00,
2013-07-07 08:28:00,83.3,74.9,30.06,SE,128,4.0,6.0,76,0.00,,,0.04,Wunderground v.1.15,2013-07-07 12:28:00,
2013-07-07 08:29:00,83.3,74.9,30.06,ESE,111,4.0,6.0,76,0.00,,,0.04,Wunderground v.1.15,2013-07-07 12:29:00,
2013-07-07 08:34:00,83.8,75.4,30.06,ENE,73,4.0,5.0,76,0.00,,,0.04,Wunderground v.1.15,2013-07-07 12:34:00,
2013-07-07 08:35:00,83.8,75.4,30.06,ENE,64,4.0,5.0,76,0.00,,,0.04,Wunderground v.1.15,2013-07-07 12:35:00,
2013-07-07 08:36:00,83.8,75.0,30.06,East,99,3.0,5.0,75,0.00,,,0.04,Wunderground v.1.15,2013-07-07 12:36:00,
2013-07-07 08:41:00,83.9,74.7,30.06,ESE,116,5.0,8.0,74,0.00,,,0.04,Wunderground v.1.15,2013-07-07 12:41:00,
2013-07-07 08:42:00,83.8,74.6,30.06,East,79,5.0,8.0,74,0.00,,,0.04,Wunderground v.1.15,2013-07-07 12:42:00,
2013-07-07 08:43:00,83.8,75.0,30.06,NE,44,5.0,8.0,75,0.00,,,0.04,Wunderground v.1.15,2013-07-07 12:43:00,
2013-07-07 08:44:00,83.7,74.9,30.06,ENE,60,5.0,8.0,75,0.00,,,0.04,Wunderground v.1.15,2013-07-07 12:44:00,
2013-07-07 08:47:00,83.5,74.7,30.07,ENE,65,6.0,8.0,75,0.00,,,0.04,Wunderground v.1.15,2013-07-07 12:47:00,
2013-07-07 08:50:00,83.5,75.1,30.07,East,82,5.0,5.0,76,0.00,,,0.04,Wunderground v.1.15,2013-07-07 12:50:00,
2013-07-07 08:51:00,83.6,75.2,30.07,ENE,67,5.0,5.0,76,0.00,,,0.04,Wunderground v.1.15,2013-07-07 12:51:00,
2013-07-07 08:53:00,83.7,74.9,30.06,SE,138,4.0,6.0,75,0.00,,,0.04,Wunderground v.1.15,2013-07-07 12:53:00,
2013-07-07 08:54:00,83.8,75.4,30.07,East,89,4.0,9.0,76,0.00,,,0.04,Wunderground v.1.15,2013-07-07 12:54:00,
2013-07-07 08:55:00,83.9,75.5,30.07,East,98,4.0,9.0,76,0.00,,,0.04,Wunderground v.1.15,2013-07-07 12:55:00,
2013-07-07 08:59:00,84.4,75.2,30.06,ENE,77,4.0,9.0,74,0.00,,,0.04,Wunderground v.1.15,2013-07-07 12:59:00,
2013-07-07 09:00:00,84.5,75.3,30.06,NE,53,4.0,6.0,74,0.00,,,0.04,Wunderground v.1.15,2013-07-07 13:00:00,
2013-07-07 09:03:00,84.7,75.5,30.06,ESE,122,4.0,11.0,74,0.00,,,0.04,Wunderground v.1.15,2013-07-07 13:03:00,
2013-07-07 09:04:00,84.8,75.6,30.07,East,87,4.0,11.0,74,0.00,,,0.04,Wunderground v.1.15,2013-07-07 13:04:00,
2013-07-07 09:06:00,84.7,75.5,30.06,East,89,4.0,11.0,74,0.00,,,0.04,Wunderground v.1.15,2013-07-07 13:06:00,
2013-07-07 09:07:00,84.5,75.3,30.07,NE,43,4.0,11.0,74,0.00,,,0.04,Wunderground v.1.15,2013-07-07 13:07:00,
2013-07-07 09:08:00,84.4,75.6,30.07,SE,129,4.0,11.0,75,0.00,,,0.04,Wunderground v.1.15,2013-07-07 13:08:00,
2013-07-07 09:10:00,84.2,75.4,30.07,ENE,77,5.0,5.0,75,0.00,,,0.04,Wunderground v.1.15,2013-07-07 13:10:00,
2013-07-07 09:13:00,84.0,75.6,30.07,NE,51,5.0,8.0,76,0.00,,,0.04,Wunderground v.1.15,2013-07-07 13:13:00,
2013-07-07 09:14:00,84.0,75.6,30.07,East,79,4.0,8.0,76,0.00,,,0.04,Wunderground v.1.15,2013-07-07 13:14:00,
2013-07-07 09:17:00,83.9,75.5,30.07,ENE,72,4.0,10.0,76,0.00,,,0.04,Wunderground v.1.15,2013-07-07 13:17:00,
2013-07-07 09:19:00,83.8,75.8,30.07,SE,140,4.0,10.0,77,0.00,,,0.04,Wunderground v.1.15,2013-07-07 13:19:00,
2013-07-07 09:22:00,84.0,76.0,30.07,NE,53,4.0,8.0,77,0.00,,,0.04,Wunderground v.1.15,2013-07-07 13:22:00,
2013-07-07 09:23:00,84.2,76.2,30.07,ESE,116,4.0,8.0,77,0.00,,,0.04,Wunderground v.1.15,2013-07-07 13:23:00,
2013-07-07 09:26:00,84.5,75.7,30.07,ENE,66,5.0,12.0,75,0.00,,,0.04,Wunderground v.1.15,2013-07-07 13:26:00,
2013-07-07 09:27:00,84.5,76.1,30.07,ENE,73,5.0,12.0,76,0.00,,,0.04,Wunderground v.1.15,2013-07-07 13:27:00,
2013-07-07 09:31:00,84.6,76.2,30.07,ENE,63,5.0,10.0,76,0.00,,,0.04,Wunderground v.1.15,2013-07-07 13:31:00,
2013-07-07 09:34:00,84.9,76.5,30.07,ESE,103,5.0,10.0,76,0.00,,,0.04,Wunderground v.1.15,2013-07-07 13:34:00,
2013-07-07 09:37:00,85.2,76.0,30.07,SE,134,5.0,10.0,74,0.00,,,0.04,Wunderground v.1.15,2013-07-07 13:37:00,
2013-07-07 09:39:00,85.4,75.3,30.07,East,94,5.0,10.0,72,0.00,,,0.04,Wunderground v.1.15,2013-07-07 13:39:00,
2013-07-07 09:41:00,85.6,75.5,30.07,East,83,5.0,9.0,72,0.00,,,0.04,Wunderground v.1.15,2013-07-07 13:41:00,
2013-07-07 09:42:00,85.5,75.4,30.07,East,96,5.0,10.0,72,0.00,,,0.04,Wunderground v.1.15,2013-07-07 13:42:00,
2013-07-07 09:43:00,85.5,75.9,30.07,ENE,77,5.0,10.0,73,0.00,,,0.04,Wunderground v.1.15,2013-07-07 13:43:00,
2013-07-07 09:49:00,85.1,75.5,30.08,SE,131,6.0,10.0,73,0.00,,,0.04,Wunderground v.1.15,2013-07-07 13:49:00,
2013-07-07 09:50:00,85.0,75.4,30.08,ENE,72,6.0,6.0,73,0.00,,,0.04,Wunderground v.1.15,2013-07-07 13:50:00,
2013-07-07 09:52:00,85.1,75.1,30.07,East,84,6.0,10.0,72,0.00,,,0.04,Wunderground v.1.15,2013-07-07 13:52:00,
2013-07-07 09:53:00,85.1,75.1,30.07,ENE,68,6.0,10.0,72,0.00,,,0.04,Wunderground v.1.15,2013-07-07 13:53:00,
2013-07-07 09:55:00,85.3,75.2,30.07,East,87,6.0,10.0,72,0.00,,,0.04,Wunderground v.1.15,2013-07-07 13:55:00,
2013-07-07 09:56:00,85.3,75.7,30.07,ESE,119,5.0,10.0,73,0.00,,,0.04,Wunderground v.1.15,2013-07-07 13:56:00,
2013-07-07 09:58:00,85.6,74.7,30.08,NE,53,5.0,10.0,70,0.00,,,0.04,Wunderground v.1.15,2013-07-07 13:58:00,
2013-07-07 09:59:00,85.7,74.8,30.07,ENE,70,5.0,10.0,70,0.00,,,0.04,Wunderground v.1.15,2013-07-07 13:59:00,
2013-07-07 10:00:00,85.9,75.0,30.07,SE,135,5.0,5.0,70,0.00,,,0.04,Wunderground v.1.15,2013-07-07 14:00:00,
2013-07-07 10:01:00,86.0,75.5,30.08,ENE,73,5.0,6.0,71,0.00,,,0.04,Wunderground v.1.15,2013-07-07 14:01:00,
2013-07-07 10:04:00,86.4,75.9,30.08,SE,131,4.0,6.0,71,0.00,,,0.04,Wunderground v.1.15,2013-07-07 14:04:00,
2013-07-07 10:05:00,86.3,75.8,30.08,ENE,68,5.0,7.0,71,0.00,,,0.04,Wunderground v.1.15,2013-07-07 14:05:00,
2013-07-07 10:06:00,86.2,75.7,30.08,SE,136,5.0,7.0,71,0.00,,,0.04,Wunderground v.1.15,2013-07-07 14:06:00,
2013-07-07 10:07:00,86.0,75.5,30.08,ESE,108,5.0,10.0,71,0.00,,,0.04,Wunderground v.1.15,2013-07-07 14:07:00,
2013-07-07 10:09:00,85.5,75.4,30.07,NE,54,5.0,10.0,72,0.00,,,0.04,Wunderground v.1.15,2013-07-07 14:09:00,
2013-07-07 10:10:00,85.4,75.8,30.08,ENE,74,5.0,5.0,73,0.00,,,0.04,Wunderground v.1.15,2013-07-07 14:10:00,
2013-07-07 10:11:00,85.3,75.7,30.07,ESE,117,6.0,6.0,73,0.00,,,0.04,Wunderground v.1.15,2013-07-07 14:11:00,
2013-07-07 10:16:00,85.0,77.0,30.08,East,82,5.0,10.0,77,0.00,,,0.04,Wunderground v.1.15,2013-07-07 14:16:00,
2013-07-07 10:17:00,85.0,76.2,30.08,ENE,72,5.0,10.0,75,0.00,,,0.04,Wunderground v.1.15,2013-07-07 14:17:00,
2013-07-07 10:19:00,85.0,75.8,30.08,ESE,117,5.0,10.0,74,0.00,,,0.04,Wunderground v.1.15,2013-07-07 14:19:00,
2013-07-07 10:21:00,85.1,75.1,30.08,ENE,68,5.0,10.0,72,0.00,,,0.04,Wunderground v.1.15,2013-07-07 14:21:00,
2013-07-07 10:23:00,85.4,74.5,30.08,NE,53,5.0,10.0,70,0.00,,,0.04,Wunderground v.1.15,2013-07-07 14:23:00,
2013-07-07 10:26:00,85.7,74.8,30.08,ENE,76,6.0,10.0,70,0.00,,,0.04,Wunderground v.1.15,2013-07-07 14:26:00,
2013-07-07 10:29:00,85.7,75.2,30.08,East,91,6.0,10.0,71,0.00,,,0.04,Wunderground v.1.15,2013-07-07 14:29:00,
2013-07-07 10:30:00,85.7,74.4,30.07,East,83,6.0,6.0,69,0.00,,,0.04,Wunderground v.1.15,2013-07-07 14:30:00,
2013-07-07 10:32:00,85.9,75.0,30.07,ENE,76,6.0,12.0,70,0.00,,,0.04,Wunderground v.1.15,2013-07-07 14:32:00,
2013-07-07 10:35:00,86.3,74.9,30.07,East,96,5.0,12.0,69,0.00,,,0.04,Wunderground v.1.15,2013-07-07 14:35:00,
2013-07-07 10:36:00,86.3,74.9,30.07,SSE,153,5.0,12.0,69,0.00,,,0.04,Wunderground v.1.15,2013-07-07 14:36:00,
2013-07-07 10:37:00,86.3,74.5,30.08,East,82,5.0,12.0,68,0.00,,,0.04,Wunderground v.1.15,2013-07-07 14:37:00,
2013-07-07 10:39:00,86.1,74.7,30.08,East,89,5.0,12.0,69,0.00,,,0.04,Wunderground v.1.15,2013-07-07 14:39:00,
2013-07-07 10:42:00,86.3,75.4,30.08,ENE,69,5.0,12.0,70,0.00,,,0.04,Wunderground v.1.15,2013-07-07 14:42:00,
2013-07-07 10:43:00,86.3,74.9,30.08,ENE,76,6.0,12.0,69,0.00,,,0.04,Wunderground v.1.15,2013-07-07 14:43:00,
2013-07-07 10:44:00,86.4,75.0,30.08,ENE,71,6.0,12.0,69,0.00,,,0.04,Wunderground v.1.15,2013-07-07 14:44:00,
2013-07-07 10:46:00,86.6,75.6,30.08,SE,134,6.0,12.0,70,0.00,,,0.04,Wunderground v.1.15,2013-07-07 14:46:00,
2013-07-07 10:47:00,86.7,75.3,30.08,ENE,74,6.0,12.0,69,0.00,,,0.04,Wunderground v.1.15,2013-07-07 14:47:00,
2013-07-07 10:52:00,86.8,75.4,30.08,ENE,63,5.0,12.0,69,0.00,,,0.04,Wunderground v.1.15,2013-07-07 14:52:00,
2013-07-07 10:54:00,86.9,75.1,30.08,East,84,5.0,12.0,68,0.00,,,0.04,Wunderground v.1.15,2013-07-07 14:54:00,
2013-07-07 10:57:00,87.0,76.0,30.08,ENE,60,5.0,12.0,70,0.00,,,0.04,Wunderground v.1.15,2013-07-07 14:57:00,
2013-07-07 10:59:00,86.8,75.4,30.08,ENE,73,5.0,12.0,69,0.00,,,0.04,Wunderground v.1.15,2013-07-07 14:59:00,
2013-07-07 11:01:00,86.7,75.7,30.08,ENE,74,5.0,6.0,70,0.00,,,0.04,Wunderground v.1.15,2013-07-07 15:01:00,
2013-07-07 11:04:00,87.0,76.0,30.08,ENE,76,4.0,6.0,70,0.00,,,0.04,Wunderground v.1.15,2013-07-07 15:04:00,
2013-07-07 11:06:00,87.0,76.0,30.08,South,181,4.0,6.0,70,0.00,,,0.04,Wunderground v.1.15,2013-07-07 15:06:00,
2013-07-07 11:08:00,87.1,75.7,30.08,ENE,63,5.0,10.0,69,0.00,,,0.04,Wunderground v.1.15,2013-07-07 15:08:00,
2013-07-07 11:09:00,87.1,75.3,30.08,SE,124,4.0,10.0,68,0.00,,,0.04,Wunderground v.1.15,2013-07-07 15:09:00,
2013-07-07 11:10:00,87.2,75.3,30.08,ENE,57,5.0,8.0,68,0.00,,,0.04,Wunderground v.1.15,2013-07-07 15:10:00,
2013-07-07 11:13:00,87.5,76.1,30.08,ESE,105,5.0,8.0,69,0.00,,,0.04,Wunderground v.1.15,2013-07-07 15:13:00,
2013-07-07 11:14:00,87.6,75.3,30.08,NE,49,5.0,8.0,67,0.00,,,0.04,Wunderground v.1.15,2013-07-07 15:14:00,
2013-07-07 11:17:00,87.7,75.4,30.08,ENE,65,5.0,8.0,67,0.00,,,0.04,Wunderground v.1.15,2013-07-07 15:17:00,
2013-07-07 11:20:00,87.4,74.6,30.08,East,79,5.0,5.0,66,0.00,,,0.04,Wunderground v.1.15,2013-07-07 15:20:00,
2013-07-07 11:21:00,87.3,75.0,30.08,ENE,61,5.0,5.0,67,0.00,,,0.04,Wunderground v.1.15,2013-07-07 15:21:00,
2013-07-07 11:22:00,87.2,74.9,30.08,SE,139,5.0,5.0,67,0.00,,,0.04,Wunderground v.1.15,2013-07-07 15:22:00,
2013-07-07 11:27:00,87.0,75.2,30.08,NE,55,6.0,8.0,68,0.00,,,0.04,Wunderground v.1.15,2013-07-07 15:27:00,
2013-07-07 11:28:00,86.9,75.5,30.08,SSE,165,6.0,9.0,69,0.00,,,0.04,Wunderground v.1.15,2013-07-07 15:28:00,
2013-07-07 11:32:00,86.8,75.0,30.08,NE,48,6.0,14.0,68,0.00,,,0.04,Wunderground v.1.15,2013-07-07 15:32:00,
2013-07-07 11:33:00,86.8,75.0,30.08,NE,50,6.0,14.0,68,0.00,,,0.04,Wunderground v.1.15,2013-07-07 15:33:00,
2013-07-07 11:34:00,86.9,75.1,30.08,ENE,73,6.0,14.0,68,0.00,,,0.04,Wunderground v.1.15,2013-07-07 15:34:00,
2013-07-07 11:37:00,87.2,74.5,30.08,East,97,5.0,14.0,66,0.00,,,0.04,Wunderground v.1.15,2013-07-07 15:37:00,
2013-07-07 11:39:00,87.5,74.7,30.08,NE,53,5.0,14.0,66,0.00,,,0.04,Wunderground v.1.15,2013-07-07 15:39:00,
2013-07-07 11:40:00,87.5,74.7,30.08,NNE,30,5.0,5.0,66,0.00,,,0.04,Wunderground v.1.15,2013-07-07 15:40:00,
2013-07-07 11:43:00,87.3,74.5,30.08,ENE,77,6.0,14.0,66,0.00,,,0.04,Wunderground v.1.15,2013-07-07 15:43:00,
2013-07-07 11:44:00,87.1,74.8,30.08,ENE,77,6.0,14.0,67,0.00,,,0.04,Wunderground v.1.15,2013-07-07 15:44:00,
2013-07-07 11:45:00,87.0,75.2,30.08,East,90,6.0,14.0,68,0.00,,,0.04,Wunderground v.1.15,2013-07-07 15:45:00,
2013-07-07 11:49:00,87.0,76.0,30.08,SE,141,6.0,14.0,70,0.00,,,0.04,Wunderground v.1.15,2013-07-07 15:49:00,
2013-07-07 11:50:00,87.0,76.0,30.08,East,82,6.0,6.0,70,0.00,,,0.04,Wunderground v.1.15,2013-07-07 15:50:00,
2013-07-07 11:52:00,86.8,75.4,30.08,East,81,6.0,14.0,69,0.00,,,0.04,Wunderground v.1.15,2013-07-07 15:52:00,
2013-07-07 11:53:00,86.9,75.5,30.08,East,101,6.0,14.0,69,0.00,,,0.04,Wunderground v.1.15,2013-07-07 15:53:00,
2013-07-07 11:54:00,86.8,75.4,30.08,East,82,6.0,14.0,69,0.00,,,0.04,Wunderground v.1.15,2013-07-07 15:54:00,
2013-07-07 11:56:00,87.0,75.6,30.08,ESE,104,6.0,14.0,69,0.00,,,0.04,Wunderground v.1.15,2013-07-07 15:56:00,
2013-07-07 12:01:00,87.6,75.7,30.08,ESE,110,5.0,8.0,68,0.00,,,0.04,Wunderground v.1.15,2013-07-07 16:01:00,
2013-07-07 12:02:00,87.6,75.3,30.08,ESE,108,5.0,8.0,67,0.00,,,0.04,Wunderground v.1.15,2013-07-07 16:02:00,
2013-07-07 12:03:00,87.6,75.3,30.08,ENE,77,5.0,8.0,67,0.00,,,0.04,Wunderground v.1.15,2013-07-07 16:03:00,
2013-07-07 12:04:00,87.5,75.2,30.08,ENE,58,5.0,8.0,67,0.00,,,0.04,Wunderground v.1.15,2013-07-07 16:04:00,
2013-07-07 12:07:00,87.3,75.4,30.08,SE,138,4.0,8.0,68,0.00,,,0.04,Wunderground v.1.15,2013-07-07 16:07:00,
2013-07-07 12:09:00,86.9,75.1,30.08,SE,131,5.0,9.0,68,0.00,,,0.04,Wunderground v.1.15,2013-07-07 16:09:00,
2013-07-07 12:10:00,86.7,75.3,30.08,ENE,64,5.0,8.0,69,0.00,,,0.04,Wunderground v.1.15,2013-07-07 16:10:00,
2013-07-07 12:13:00,86.8,75.4,30.08,East,90,5.0,8.0,69,0.00,,,0.04,Wunderground v.1.15,2013-07-07 16:13:00,
2013-07-07 12:14:00,87.0,75.6,30.08,ESE,108,5.0,8.0,69,0.00,,,0.04,Wunderground v.1.15,2013-07-07 16:14:00,
2013-07-07 12:15:00,87.1,75.7,30.08,ENE,69,5.0,8.0,69,0.00,,,0.04,Wunderground v.1.15,2013-07-07 16:15:00,
2013-07-07 12:17:00,87.1,75.7,30.08,East,84,5.0,8.0,69,0.00,,,0.04,Wunderground v.1.15,2013-07-07 16:17:00,
2013-07-07 12:18:00,87.1,77.0,30.08,ESE,105,5.0,8.0,72,0.00,,,0.04,Wunderground v.1.15,2013-07-07 16:18:00,
2013-07-07 12:19:00,87.0,76.9,30.08,ENE,63,5.0,8.0,72,0.00,,,0.04,Wunderground v.1.15,2013-07-07 16:19:00,
2013-07-07 12:21:00,86.5,77.6,30.08,ENE,59,5.0,9.0,75,0.00,,,0.05,Wunderground v.1.15,2013-07-07 16:21:00,
2013-07-07 12:25:00,85.9,79.0,30.08,ENE,65,5.0,9.0,80,0.00,,,0.05,Wunderground v.1.15,2013-07-07 16:25:00,
2013-07-07 12:26:00,85.7,77.7,30.08,East,79,5.0,9.0,77,0.00,,,0.05,Wunderground v.1.15,2013-07-07 16:26:00,
2013-07-07 12:28:00,85.6,76.8,30.07,SE,137,5.0,9.0,75,0.00,,,0.05,Wunderground v.1.15,2013-07-07 16:28:00,
2013-07-07 12:30:00,85.5,76.3,30.07,SSW,199,5.0,5.0,74,0.00,,,0.05,Wunderground v.1.15,2013-07-07 16:30:00,
2013-07-07 12:31:00,85.5,75.9,30.07,East,86,5.0,13.0,73,0.00,,,0.05,Wunderground v.1.15,2013-07-07 16:31:00,
2013-07-07 12:33:00,85.7,75.6,30.07,SE,134,5.0,13.0,72,0.00,,,0.05,Wunderground v.1.15,2013-07-07 16:33:00,
2013-07-07 12:35:00,86.0,75.5,30.07,NNE,25,5.0,13.0,71,0.00,,,0.05,Wunderground v.1.15,2013-07-07 16:35:00,
2013-07-07 12:36:00,86.1,75.2,30.07,ESE,113,6.0,13.0,70,0.00,,,0.05,Wunderground v.1.15,2013-07-07 16:36:00,
2013-07-07 12:38:00,86.2,74.0,30.07,East,84,6.0,14.0,67,0.00,,,0.05,Wunderground v.1.15,2013-07-07 16:38:00,
2013-07-07 12:39:00,86.4,75.0,30.07,NE,51,6.0,14.0,69,0.00,,,0.05,Wunderground v.1.15,2013-07-07 16:39:00,
2013-07-07 12:42:00,87.0,73.8,30.07,ENE,76,6.0,13.0,65,0.00,,,0.05,Wunderground v.1.15,2013-07-07 16:42:00,
2013-07-07 12:43:00,87.2,74.0,30.07,ENE,78,6.0,13.0,65,0.00,,,0.05,Wunderground v.1.15,2013-07-07 16:43:00,
2013-07-07 12:44:00,87.4,74.6,30.07,SSE,148,6.0,13.0,66,0.00,,,0.05,Wunderground v.1.15,2013-07-07 16:44:00,
2013-07-07 12:45:00,87.5,74.7,30.07,ENE,73,6.0,13.0,66,0.00,,,0.05,Wunderground v.1.15,2013-07-07 16:45:00,
2013-07-07 12:46:00,87.5,74.3,30.07,ESE,121,6.0,13.0,65,0.00,,,0.05,Wunderground v.1.15,2013-07-07 16:46:00,
2013-07-07 12:49:00,87.6,74.4,30.07,NE,54,5.0,13.0,65,0.00,,,0.05,Wunderground v.1.15,2013-07-07 16:49:00,
2013-07-07 12:51:00,87.4,74.2,30.07,East,98,6.0,13.0,65,0.00,,,0.05,Wunderground v.1.15,2013-07-07 16:51:00,
2013-07-07 12:52:00,87.5,74.7,30.07,NW,321,6.0,13.0,66,0.00,,,0.05,Wunderground v.1.15,2013-07-07 16:52:00,
2013-07-07 12:56:00,88.0,75.7,30.07,ENE,61,6.0,13.0,67,0.00,,,0.05,Wunderground v.1.15,2013-07-07 16:56:00,
2013-07-07 12:57:00,88.0,74.3,30.07,ENE,61,6.0,13.0,64,0.00,,,0.05,Wunderground v.1.15,2013-07-07 16:57:00,
2013-07-07 12:58:00,88.0,74.8,30.07,East,86,6.0,13.0,65,0.00,,,0.05,Wunderground v.1.15,2013-07-07 16:58:00,
2013-07-07 12:59:00,88.0,75.2,30.07,SE,130,6.0,13.0,66,0.00,,,0.05,Wunderground v.1.15,2013-07-07 16:59:00,
2013-07-07 13:02:00,88.0,74.3,30.07,East,84,6.0,15.0,64,0.00,,,0.05,Wunderground v.1.15,2013-07-07 17:02:00,
2013-07-07 13:03:00,87.9,74.2,30.07,East,82,6.0,15.0,64,0.00,,,0.05,Wunderground v.1.15,2013-07-07 17:03:00,
2013-07-07 13:04:00,87.9,74.2,30.07,ENE,63,6.0,15.0,64,0.00,,,0.05,Wunderground v.1.15,2013-07-07 17:04:00,
2013-07-07 13:06:00,87.8,75.5,30.07,ENE,58,6.0,15.0,67,0.00,,,0.05,Wunderground v.1.15,2013-07-07 17:06:00,
2013-07-07 13:09:00,87.8,75.0,30.07,SSE,156,6.0,15.0,66,0.00,,,0.05,Wunderground v.1.15,2013-07-07 17:09:00,
2013-07-07 13:10:00,87.8,75.0,30.07,NE,53,6.0,9.0,66,0.00,,,0.05,Wunderground v.1.15,2013-07-07 17:10:00,
2013-07-07 13:11:00,87.8,75.0,30.07,ESE,105,6.0,9.0,66,0.00,,,0.05,Wunderground v.1.15,2013-07-07 17:11:00,
2013-07-07 13:13:00,87.8,74.6,30.07,SE,146,6.0,9.0,65,0.00,,,0.05,Wunderground v.1.15,2013-07-07 17:13:00,
2013-07-07 13:14:00,87.9,75.1,30.07,North,1,6.0,9.0,66,0.00,,,0.05,Wunderground v.1.15,2013-07-07 17:14:00,
2013-07-07 13:16:00,88.2,74.9,30.07,SE,143,6.0,9.0,65,0.00,,,0.05,Wunderground v.1.15,2013-07-07 17:16:00,
2013-07-07 13:20:00,88.1,74.8,30.07,East,92,6.0,7.0,65,0.00,,,0.05,Wunderground v.1.15,2013-07-07 17:20:00,
2013-07-07 13:21:00,88.2,74.5,30.07,East,98,6.0,7.0,64,0.00,,,0.05,Wunderground v.1.15,2013-07-07 17:21:00,
2013-07-07 13:22:00,88.3,75.0,30.07,East,93,6.0,7.0,65,0.00,,,0.05,Wunderground v.1.15,2013-07-07 17:22:00,
2013-07-07 13:26:00,89.0,74.8,30.07,North,2,5.0,9.0,63,0.00,,,0.05,Wunderground v.1.15,2013-07-07 17:26:00,
2013-07-07 13:27:00,89.0,74.8,30.07,ENE,57,5.0,9.0,63,0.00,,,0.05,Wunderground v.1.15,2013-07-07 17:27:00,
2013-07-07 13:28:00,88.9,74.7,30.06,East,80,5.0,9.0,63,0.00,,,0.05,Wunderground v.1.15,2013-07-07 17:28:00,
2013-07-07 13:32:00,88.4,74.7,30.06,SE,129,5.0,18.0,64,0.00,,,0.05,Wunderground v.1.15,2013-07-07 17:32:00,
2013-07-07 13:34:00,88.4,74.2,30.06,NNE,23,6.0,18.0,63,0.00,,,0.05,Wunderground v.1.15,2013-07-07 17:34:00,
2013-07-07 13:35:00,88.5,74.3,30.06,NE,56,6.0,18.0,63,0.00,,,0.05,Wunderground v.1.15,2013-07-07 17:35:00,
2013-07-07 13:36:00,88.5,74.3,30.06,East,84,6.0,18.0,63,0.00,,,0.05,Wunderground v.1.15,2013-07-07 17:36:00,
2013-07-07 13:39:00,88.2,74.0,30.06,East,84,6.0,18.0,63,0.00,,,0.05,Wunderground v.1.15,2013-07-07 17:39:00,
2013-07-07 13:41:00,87.7,74.5,30.06,NNW,330,6.0,18.0,65,0.00,,,0.05,Wunderground v.1.15,2013-07-07 17:41:00,
2013-07-07 13:42:00,87.7,74.5,30.06,SSE,165,6.0,18.0,65,0.00,,,0.05,Wunderground v.1.15,2013-07-07 17:42:00,
2013-07-07 13:43:00,87.7,74.9,30.06,ENE,61,6.0,18.0,66,0.00,,,0.05,Wunderground v.1.15,2013-07-07 17:43:00,
2013-07-07 13:44:00,87.8,74.6,30.06,East,88,6.0,18.0,65,0.00,,,0.05,Wunderground v.1.15,2013-07-07 17:44:00,
2013-07-07 13:49:00,87.7,74.9,30.06,ENE,66,6.0,18.0,66,0.00,,,0.05,Wunderground v.1.15,2013-07-07 17:49:00,
2013-07-07 13:50:00,87.6,74.8,30.06,NE,44,6.0,18.0,66,0.00,,,0.05,Wunderground v.1.15,2013-07-07 17:50:00,
2013-07-07 13:51:00,87.5,74.7,30.06,ENE,58,6.0,18.0,66,0.00,,,0.05,Wunderground v.1.15,2013-07-07 17:51:00,
2013-07-07 13:52:00,87.4,74.6,30.06,ESE,103,6.0,18.0,66,0.00,,,0.05,Wunderground v.1.15,2013-07-07 17:52:00,
2013-07-07 13:53:00,87.4,75.1,30.06,North,4,6.0,18.0,67,0.00,,,0.05,Wunderground v.1.15,2013-07-07 17:53:00,
2013-07-07 13:55:00,87.6,74.8,30.06,NW,320,6.0,18.0,66,0.00,,,0.05,Wunderground v.1.15,2013-07-07 17:55:00,
2013-07-07 13:56:00,87.6,74.8,30.06,East,82,6.0,18.0,66,0.00,,,0.05,Wunderground v.1.15,2013-07-07 17:56:00,
2013-07-07 13:58:00,87.7,75.4,30.06,East,80,6.0,18.0,67,0.00,,,0.05,Wunderground v.1.15,2013-07-07 17:58:00,
2013-07-07 14:00:00,87.7,74.9,30.05,NE,47,6.0,6.0,66,0.00,,,0.05,Wunderground v.1.15,2013-07-07 18:00:00,
2013-07-07 14:01:00,87.9,75.6,30.06,ENE,63,6.0,10.0,67,0.00,,,0.05,Wunderground v.1.15,2013-07-07 18:01:00,
2013-07-07 14:02:00,88.1,75.3,30.05,NNW,337,6.0,10.0,66,0.00,,,0.05,Wunderground v.1.15,2013-07-07 18:02:00,
2013-07-07 14:06:00,88.3,74.6,30.06,ENE,77,6.0,10.0,64,0.00,,,0.05,Wunderground v.1.15,2013-07-07 18:06:00,
2013-07-07 14:07:00,88.2,74.5,30.05,NW,326,6.0,10.0,64,0.00,,,0.05,Wunderground v.1.15,2013-07-07 18:07:00,
2013-07-07 14:08:00,88.2,74.5,30.05,NE,51,6.0,10.0,64,0.00,,,0.05,Wunderground v.1.15,2013-07-07 18:08:00,
2013-07-07 14:09:00,88.2,74.5,30.05,ENE,71,6.0,10.0,64,0.00,,,0.05,Wunderground v.1.15,2013-07-07 18:09:00,
2013-07-07 14:12:00,88.1,74.8,30.05,ESE,123,6.0,6.0,65,0.00,,,0.05,Wunderground v.1.15,2013-07-07 18:12:00,
2013-07-07 14:14:00,88.1,74.4,30.05,SE,134,6.0,7.0,64,0.00,,,0.05,Wunderground v.1.15,2013-07-07 18:14:00,
2013-07-07 14:15:00,88.1,74.4,30.05,East,87,6.0,7.0,64,0.00,,,0.05,Wunderground v.1.15,2013-07-07 18:15:00,
2013-07-07 14:17:00,88.2,74.0,30.05,NE,37,6.0,9.0,63,0.00,,,0.05,Wunderground v.1.15,2013-07-07 18:17:00,
2013-07-07 14:19:00,88.3,74.6,30.05,ENE,71,7.0,9.0,64,0.00,,,0.05,Wunderground v.1.15,2013-07-07 18:19:00,
2013-07-07 14:20:00,88.2,74.5,30.05,East,99,7.0,9.0,64,0.00,,,0.05,Wunderground v.1.15,2013-07-07 18:20:00,
2013-07-07 14:22:00,88.2,74.5,30.05,ENE,58,7.0,9.0,64,0.00,,,0.05,Wunderground v.1.15,2013-07-07 18:22:00,
2013-07-07 14:25:00,88.4,75.1,30.05,North,5,7.0,11.0,65,0.00,,,0.05,Wunderground v.1.15,2013-07-07 18:25:00,
2013-07-07 14:27:00,88.3,74.1,30.05,NE,56,7.0,11.0,63,0.00,,,0.05,Wunderground v.1.15,2013-07-07 18:27:00,
2013-07-07 14:28:00,88.4,74.2,30.05,ENE,68,7.0,11.0,63,0.00,,,0.05,Wunderground v.1.15,2013-07-07 18:28:00,
2013-07-07 14:31:00,88.4,74.7,30.05,East,81,7.0,15.0,64,0.00,,,0.05,Wunderground v.1.15,2013-07-07 18:31:00,
2013-07-07 14:32:00,88.4,75.1,30.05,ENE,72,6.0,15.0,65,0.00,,,0.05,Wunderground v.1.15,2013-07-07 18:32:00,
2013-07-07 14:33:00,88.4,75.1,30.05,East,82,6.0,15.0,65,0.00,,,0.05,Wunderground v.1.15,2013-07-07 18:33:00,
2013-07-07 14:37:00,88.4,74.2,30.05,ENE,77,6.0,15.0,63,0.00,,,0.05,Wunderground v.1.15,2013-07-07 18:37:00,
2013-07-07 14:38:00,88.3,74.1,30.05,SE,132,6.0,15.0,63,0.00,,,0.05,Wunderground v.1.15,2013-07-07 18:38:00,
2013-07-07 14:40:00,88.7,75.0,30.05,ESE,104,6.0,15.0,64,0.00,,,0.05,Wunderground v.1.15,2013-07-07 18:40:00,
2013-07-07 14:43:00,88.7,72.5,30.05,NE,56,6.0,15.0,59,0.00,,,0.05,Wunderground v.1.15,2013-07-07 18:43:00,
2013-07-07 14:44:00,88.5,73.8,30.05,East,91,6.0,15.0,62,0.00,,,0.05,Wunderground v.1.15,2013-07-07 18:44:00,
2013-07-07 14:45:00,88.4,74.7,30.05,ENE,67,7.0,15.0,64,0.00,,,0.05,Wunderground v.1.15,2013-07-07 18:45:00,
2013-07-07 14:46:00,88.3,75.0,30.05,NE,50,7.0,15.0,65,0.00,,,0.05,Wunderground v.1.15,2013-07-07 18:46:00,
2013-07-07 14:48:00,88.4,75.6,30.05,East,98,6.0,15.0,66,0.00,,,0.05,Wunderground v.1.15,2013-07-07 18:48:00,
2013-07-07 14:50:00,88.7,75.9,30.04,SE,145,6.0,6.0,66,0.00,,,0.05,Wunderground v.1.15,2013-07-07 18:50:00,
2013-07-07 14:51:00,88.5,75.2,30.05,ENE,73,6.0,7.0,65,0.00,,,0.05,Wunderground v.1.15,2013-07-07 18:51:00,
2013-07-07 14:52:00,88.3,75.0,30.04,ENE,73,6.0,15.0,65,0.00,,,0.05,Wunderground v.1.15,2013-07-07 18:52:00,
2013-07-07 14:55:00,88.3,75.9,30.04,East,86,6.0,15.0,67,0.00,,,0.05,Wunderground v.1.15,2013-07-07 18:55:00,
2013-07-07 14:56:00,88.4,75.1,30.04,SE,132,6.0,15.0,65,0.00,,,0.05,Wunderground v.1.15,2013-07-07 18:56:00,
2013-07-07 14:57:00,88.4,75.6,30.04,East,86,6.0,15.0,66,0.00,,,0.05,Wunderground v.1.15,2013-07-07 18:57:00,
2013-07-07 14:58:00,88.5,75.7,30.04,ENE,75,6.0,15.0,66,0.00,,,0.05,Wunderground v.1.15,2013-07-07 18:58:00,
2013-07-07 15:01:00,88.5,75.2,30.04,South,179,6.0,6.0,65,0.00,,,0.05,Wunderground v.1.15,2013-07-07 19:01:00,
2013-07-07 15:05:00,88.2,74.9,30.04,East,86,6.0,9.0,65,0.00,,,0.05,Wunderground v.1.15,2013-07-07 19:05:00,
2013-07-07 15:07:00,88.1,74.8,30.04,ESE,119,6.0,9.0,65,0.00,,,0.05,Wunderground v.1.15,2013-07-07 19:07:00,
2013-07-07 15:08:00,88.1,74.8,30.04,SE,134,6.0,9.0,65,0.00,,,0.05,Wunderground v.1.15,2013-07-07 19:08:00,
2013-07-07 15:09:00,88.1,74.8,30.04,SE,132,6.0,9.0,65,0.00,,,0.05,Wunderground v.1.15,2013-07-07 19:09:00,
2013-07-07 15:11:00,88.4,75.1,30.04,ENE,58,6.0,13.0,65,0.00,,,0.05,Wunderground v.1.15,2013-07-07 19:11:00,
2013-07-07 15:14:00,88.2,74.5,30.04,SSE,153,6.0,13.0,64,0.00,,,0.05,Wunderground v.1.15,2013-07-07 19:14:00,
2013-07-07 15:17:00,88.6,74.4,30.04,SE,136,5.0,13.0,63,0.00,,,0.05,Wunderground v.1.15,2013-07-07 19:17:00,
2013-07-07 15:18:00,88.5,74.3,30.04,East,84,5.0,13.0,63,0.00,,,0.05,Wunderground v.1.15,2013-07-07 19:18:00,
2013-07-07 15:19:00,88.4,74.7,30.04,East,89,6.0,13.0,64,0.00,,,0.05,Wunderground v.1.15,2013-07-07 19:19:00,
2013-07-07 15:22:00,88.5,74.3,30.04,ENE,76,5.0,7.0,63,0.00,,,0.05,Wunderground v.1.15,2013-07-07 19:22:00,
2013-07-07 15:24:00,88.3,74.6,30.04,ENE,62,6.0,10.0,64,0.00,,,0.05,Wunderground v.1.15,2013-07-07 19:24:00,
2013-07-07 15:25:00,88.2,74.5,30.04,ENE,74,6.0,10.0,64,0.00,,,0.05,Wunderground v.1.15,2013-07-07 19:25:00,
2013-07-07 15:30:00,88.4,74.7,30.04,ESE,108,6.0,9.0,64,0.00,,,0.05,Wunderground v.1.15,2013-07-07 19:30:00,
2013-07-07 15:31:00,88.4,74.7,30.04,ESE,117,6.0,14.0,64,0.00,,,0.05,Wunderground v.1.15,2013-07-07 19:31:00,
2013-07-07 15:32:00,88.4,74.7,30.04,ENE,75,6.0,14.0,64,0.00,,,0.05,Wunderground v.1.15,2013-07-07 19:32:00,
2013-07-07 15:33:00,88.6,74.9,30.04,ESE,114,6.0,14.0,64,0.00,,,0.05,Wunderground v.1.15,2013-07-07 19:33:00,
2013-07-07 15:37:00,88.3,74.6,30.04,SSE,164,6.0,14.0,64,0.00,,,0.05,Wunderground v.1.15,2013-07-07 19:37:00,
2013-07-07 15:39:00,88.0,74.8,30.03,East,84,7.0,14.0,65,0.00,,,0.05,Wunderground v.1.15,2013-07-07 19:39:00,
2013-07-07 15:40:00,88.0,74.8,30.03,ENE,65,7.0,14.0,65,0.00,,,0.05,Wunderground v.1.15,2013-07-07 19:40:00,
2013-07-07 15:42:00,88.3,75.5,30.03,ENE,60,7.0,14.0,66,0.00,,,0.05,Wunderground v.1.15,2013-07-07 19:42:00,
2013-07-07 15:43:00,88.3,75.0,30.03,ENE,72,7.0,14.0,65,0.00,,,0.05,Wunderground v.1.15,2013-07-07 19:43:00,
2013-07-07 15:46:00,88.2,74.9,30.03,SSE,159,7.0,14.0,65,0.00,,,0.05,Wunderground v.1.15,2013-07-07 19:46:00,
2013-07-07 15:47:00,88.3,74.6,30.03,ENE,72,7.0,14.0,64,0.00,,,0.05,Wunderground v.1.15,2013-07-07 19:47:00,
2013-07-07 15:50:00,88.1,74.4,30.03,ESE,102,7.0,14.0,64,0.00,,,0.05,Wunderground v.1.15,2013-07-07 19:50:00,
2013-07-07 15:52:00,88.2,74.9,30.03,ENE,68,7.0,14.0,65,0.00,,,0.05,Wunderground v.1.15,2013-07-07 19:52:00,
2013-07-07 15:54:00,88.1,74.8,30.03,ENE,60,7.0,14.0,65,0.00,,,0.05,Wunderground v.1.15,2013-07-07 19:54:00,
2013-07-07 15:56:00,88.3,75.0,30.03,SE,127,7.0,14.0,65,0.00,,,0.05,Wunderground v.1.15,2013-07-07 19:56:00,
2013-07-07 15:57:00,88.4,75.1,30.03,ESE,113,7.0,14.0,65,0.00,,,0.05,Wunderground v.1.15,2013-07-07 19:57:00,
2013-07-07 15:58:00,88.7,75.4,30.03,ENE,67,6.0,14.0,65,0.00,,,0.05,Wunderground v.1.15,2013-07-07 19:58:00,
2013-07-07 16:02:00,88.5,74.8,30.03,SE,139,7.0,8.0,64,0.00,,,0.05,Wunderground v.1.15,2013-07-07 20:02:00,
2013-07-07 16:03:00,88.5,75.2,30.03,SSE,148,6.0,8.0,65,0.00,,,0.05,Wunderground v.1.15,2013-07-07 20:03:00,
2013-07-07 16:04:00,88.7,75.4,30.03,East,79,6.0,8.0,65,0.00,,,0.05,Wunderground v.1.15,2013-07-07 20:04:00,
2013-07-07 16:05:00,88.8,75.5,30.03,ENE,78,6.0,10.0,65,0.00,,,0.05,Wunderground v.1.15,2013-07-07 20:05:00,
2013-07-07 16:06:00,88.8,75.5,30.03,East,88,6.0,11.0,65,0.00,,,0.05,Wunderground v.1.15,2013-07-07 20:06:00,
2013-07-07 16:09:00,88.4,74.7,30.03,East,83,7.0,11.0,64,0.00,,,0.05,Wunderground v.1.15,2013-07-07 20:09:00,
2013-07-07 16:12:00,88.3,75.0,30.03,East,93,6.0,8.0,65,0.00,,,0.05,Wunderground v.1.15,2013-07-07 20:12:00,
2013-07-07 16:13:00,88.2,75.4,30.03,ESE,110,6.0,8.0,66,0.00,,,0.05,Wunderground v.1.15,2013-07-07 20:13:00,
2013-07-07 16:14:00,88.2,75.4,30.03,SE,140,7.0,8.0,66,0.00,,,0.05,Wunderground v.1.15,2013-07-07 20:14:00,
2013-07-07 16:19:00,88.9,75.1,30.02,ENE,70,6.0,8.0,64,0.00,,,0.05,Wunderground v.1.15,2013-07-07 20:19:00,
2013-07-07 16:20:00,89.0,75.2,30.02,ESE,107,6.0,10.0,64,0.00,,,0.05,Wunderground v.1.15,2013-07-07 20:20:00,
2013-07-07 16:23:00,88.7,74.5,30.02,ESE,108,6.0,10.0,63,0.00,,,0.05,Wunderground v.1.15,2013-07-07 20:23:00,
2013-07-07 16:24:00,88.6,74.4,30.02,SSE,164,6.0,10.0,63,0.00,,,0.05,Wunderground v.1.15,2013-07-07 20:24:00,
2013-07-07 16:25:00,88.7,74.5,30.02,East,85,6.0,10.0,63,0.00,,,0.05,Wunderground v.1.15,2013-07-07 20:25:00,
2013-07-07 16:27:00,88.7,74.5,30.02,NE,46,7.0,10.0,63,0.00,,,0.05,Wunderground v.1.15,2013-07-07 20:27:00,
2013-07-07 16:30:00,88.9,75.1,30.02,ENE,65,7.0,12.0,64,0.00,,,0.05,Wunderground v.1.15,2013-07-07 20:30:00,
2013-07-07 16:31:00,88.9,75.6,30.02,ENE,70,7.0,16.0,65,0.00,,,0.05,Wunderground v.1.15,2013-07-07 20:31:00,
2013-07-07 16:33:00,88.7,75.4,30.02,ESE,110,6.0,16.0,65,0.00,,,0.05,Wunderground v.1.15,2013-07-07 20:33:00,
2013-07-07 16:34:00,88.7,75.4,30.02,ENE,77,6.0,16.0,65,0.00,,,0.05,Wunderground v.1.15,2013-07-07 20:34:00,
2013-07-07 16:37:00,88.6,74.4,30.02,ESE,108,5.0,16.0,63,0.00,,,0.05,Wunderground v.1.15,2013-07-07 20:37:00,
2013-07-07 16:38:00,88.5,74.8,30.02,ENE,71,6.0,16.0,64,0.00,,,0.05,Wunderground v.1.15,2013-07-07 20:38:00,
2013-07-07 16:42:00,88.1,75.3,30.02,NE,51,6.0,16.0,66,0.00,,,0.05,Wunderground v.1.15,2013-07-07 20:42:00,
2013-07-07 16:44:00,88.1,74.8,30.02,ESE,115,6.0,16.0,65,0.00,,,0.05,Wunderground v.1.15,2013-07-07 20:44:00,
2013-07-07 16:45:00,88.2,74.9,30.02,ESE,113,6.0,16.0,65,0.00,,,0.05,Wunderground v.1.15,2013-07-07 20:45:00,
2013-07-07 16:48:00,88.7,75.4,30.02,ENE,74,6.0,16.0,65,0.00,,,0.05,Wunderground v.1.15,2013-07-07 20:48:00,
2013-07-07 16:51:00,88.7,74.5,30.02,ENE,71,6.0,16.0,63,0.00,,,0.05,Wunderground v.1.15,2013-07-07 20:51:00,
2013-07-07 16:53:00,88.4,74.7,30.02,ENE,69,6.0,16.0,64,0.00,,,0.05,Wunderground v.1.15,2013-07-07 20:53:00,
2013-07-07 16:55:00,88.2,74.5,30.02,SE,144,6.0,16.0,64,0.00,,,0.05,Wunderground v.1.15,2013-07-07 20:55:00,
2013-07-07 16:56:00,88.1,73.9,30.02,SE,146,6.0,16.0,63,0.00,,,0.05,Wunderground v.1.15,2013-07-07 20:56:00,
2013-07-07 16:57:00,87.9,73.7,30.02,ESE,108,6.0,16.0,63,0.00,,,0.05,Wunderground v.1.15,2013-07-07 20:57:00,
2013-07-07 16:59:00,87.8,74.1,30.02,ENE,77,6.0,16.0,64,0.00,,,0.05,Wunderground v.1.15,2013-07-07 20:59:00,
2013-07-07 17:00:00,87.7,74.0,30.02,SSE,148,6.0,6.0,64,0.00,,,0.05,Wunderground v.1.15,2013-07-07 21:00:00,
2013-07-07 17:02:00,87.7,74.5,30.02,ESE,108,6.0,6.0,65,0.00,,,0.05,Wunderground v.1.15,2013-07-07 21:02:00,
2013-07-07 17:06:00,87.9,74.7,30.01,East,88,5.0,7.0,65,0.00,,,0.05,Wunderground v.1.15,2013-07-07 21:06:00,
2013-07-07 17:07:00,88.1,74.8,30.02,ENE,57,5.0,7.0,65,0.00,,,0.05,Wunderground v.1.15,2013-07-07 21:07:00,
2013-07-07 17:09:00,88.4,74.7,30.01,NE,39,5.0,7.0,64,0.00,,,0.05,Wunderground v.1.15,2013-07-07 21:09:00,
2013-07-07 17:11:00,88.3,74.6,30.01,South,175,5.0,9.0,64,0.00,,,0.05,Wunderground v.1.15,2013-07-07 21:11:00,
2013-07-07 17:14:00,88.3,74.1,30.01,ENE,70,5.0,9.0,63,0.00,,,0.05,Wunderground v.1.15,2013-07-07 21:14:00,
2013-07-07 17:15:00,88.2,73.5,30.01,SE,128,5.0,9.0,62,0.00,,,0.05,Wunderground v.1.15,2013-07-07 21:15:00,
2013-07-07 17:17:00,87.7,73.5,30.01,East,101,6.0,12.0,63,0.00,,,0.05,Wunderground v.1.15,2013-07-07 21:17:00,
2013-07-07 17:19:00,87.3,74.1,30.01,East,98,6.0,12.0,65,0.00,,,0.05,Wunderground v.1.15,2013-07-07 21:19:00,
2013-07-07 17:20:00,87.2,74.5,30.01,SSE,148,6.0,10.0,66,0.00,,,0.05,Wunderground v.1.15,2013-07-07 21:20:00,
2013-07-07 17:22:00,87.4,74.6,30.01,ENE,72,6.0,10.0,66,0.00,,,0.05,Wunderground v.1.15,2013-07-07 21:22:00,
2013-07-07 17:26:00,87.5,75.6,30.01,ENE,74,6.0,10.0,68,0.00,,,0.05,Wunderground v.1.15,2013-07-07 21:26:00,
2013-07-07 17:27:00,87.5,74.7,30.01,WNW,296,6.0,10.0,66,0.00,,,0.05,Wunderground v.1.15,2013-07-07 21:27:00,
2013-07-07 17:31:00,87.5,75.2,30.01,SSE,155,5.0,12.0,67,0.00,,,0.05,Wunderground v.1.15,2013-07-07 21:31:00,
2013-07-07 17:33:00,87.7,74.9,30.01,SE,129,6.0,12.0,66,0.00,,,0.05,Wunderground v.1.15,2013-07-07 21:33:00,
2013-07-07 17:34:00,87.6,74.8,30.01,NE,42,5.0,12.0,66,0.00,,,0.05,Wunderground v.1.15,2013-07-07 21:34:00,
2013-07-07 17:35:00,87.7,75.4,30.01,NE,46,5.0,12.0,67,0.00,,,0.05,Wunderground v.1.15,2013-07-07 21:35:00,
2013-07-07 17:37:00,87.7,75.4,30.01,East,91,5.0,12.0,67,0.00,,,0.05,Wunderground v.1.15,2013-07-07 21:37:00,
2013-07-07 17:40:00,87.8,75.5,30.01,NE,48,5.0,12.0,67,0.00,,,0.05,Wunderground v.1.15,2013-07-07 21:40:00,
2013-07-07 17:41:00,87.8,75.0,30.01,ENE,71,5.0,12.0,66,0.00,,,0.05,Wunderground v.1.15,2013-07-07 21:41:00,
2013-07-07 17:42:00,87.8,75.0,30.01,East,84,5.0,12.0,66,0.00,,,0.05,Wunderground v.1.15,2013-07-07 21:42:00,
2013-07-07 17:44:00,87.8,74.1,30.01,NE,55,5.0,12.0,64,0.00,,,0.05,Wunderground v.1.15,2013-07-07 21:44:00,
2013-07-07 17:46:00,87.6,74.4,30.01,East,79,6.0,16.0,65,0.00,,,0.05,Wunderground v.1.15,2013-07-07 21:46:00,
2013-07-07 17:49:00,87.6,74.4,30.01,East,91,6.0,16.0,65,0.00,,,0.05,Wunderground v.1.15,2013-07-07 21:49:00,
2013-07-07 17:51:00,87.7,74.5,30.01,NE,54,6.0,12.0,65,0.00,,,0.05,Wunderground v.1.15,2013-07-07 21:51:00,
2013-07-07 17:53:00,87.7,74.9,30.01,East,86,6.0,12.0,66,0.00,,,0.05,Wunderground v.1.15,2013-07-07 21:53:00,
2013-07-07 17:55:00,87.7,74.5,30.01,South,182,6.0,12.0,65,0.00,,,0.05,Wunderground v.1.15,2013-07-07 21:55:00,
2013-07-07 17:56:00,87.7,74.5,30.01,ESE,105,5.0,12.0,65,0.00,,,0.05,Wunderground v.1.15,2013-07-07 21:56:00,
2013-07-07 17:57:00,87.7,74.0,30.01,SSE,160,5.0,12.0,64,0.00,,,0.05,Wunderground v.1.15,2013-07-07 21:57:00,
2013-07-07 18:00:00,87.6,73.9,30.01,NE,52,6.0,6.0,64,0.00,,,0.05,Wunderground v.1.15,2013-07-07 22:00:00,
2013-07-07 18:01:00,87.5,73.8,30.01,East,100,6.0,9.0,64,0.00,,,0.05,Wunderground v.1.15,2013-07-07 22:01:00,
2013-07-07 18:02:00,87.5,73.8,30.01,East,91,6.0,10.0,64,0.00,,,0.05,Wunderground v.1.15,2013-07-07 22:02:00,
2013-07-07 18:03:00,87.4,74.2,30.01,South,184,6.0,10.0,65,0.00,,,0.05,Wunderground v.1.15,2013-07-07 22:03:00,
2013-07-07 18:07:00,87.4,74.2,30.01,SE,130,7.0,10.0,65,0.00,,,0.05,Wunderground v.1.15,2013-07-07 22:07:00,
2013-07-07 18:11:00,87.3,74.5,30.01,East,93,6.0,6.0,66,0.00,,,0.05,Wunderground v.1.15,2013-07-07 22:11:00,
2013-07-07 18:12:00,87.3,74.5,30.00,ENE,64,6.0,6.0,66,0.00,,,0.05,Wunderground v.1.15,2013-07-07 22:12:00,
2013-07-07 18:14:00,87.3,74.5,30.00,SW,221,6.0,6.0,66,0.00,,,0.05,Wunderground v.1.15,2013-07-07 22:14:00,
2013-07-07 18:15:00,87.3,74.5,30.00,ESE,104,6.0,8.0,66,0.00,,,0.05,Wunderground v.1.15,2013-07-07 22:15:00,
2013-07-07 18:17:00,87.5,75.2,30.00,SE,145,5.0,8.0,67,0.00,,,0.05,Wunderground v.1.15,2013-07-07 22:17:00,
2013-07-07 18:18:00,87.6,75.3,30.00,ENE,63,5.0,9.0,67,0.00,,,0.05,Wunderground v.1.15,2013-07-07 22:18:00,
2013-07-07 18:20:00,87.6,74.8,30.01,East,93,5.0,5.0,66,0.00,,,0.05,Wunderground v.1.15,2013-07-07 22:20:00,
2013-07-07 18:22:00,87.7,75.4,30.00,East,96,5.0,6.0,67,0.00,,,0.05,Wunderground v.1.15,2013-07-07 22:22:00,
2013-07-07 18:25:00,87.7,75.4,30.01,ENE,58,5.0,9.0,67,0.00,,,0.05,Wunderground v.1.15,2013-07-07 22:25:00,
2013-07-07 18:26:00,87.6,75.3,30.01,ENE,63,5.0,9.0,67,0.00,,,0.05,Wunderground v.1.15,2013-07-07 22:26:00,
2013-07-07 18:30:00,87.5,75.2,30.01,East,95,5.0,5.0,67,0.00,,,0.05,Wunderground v.1.15,2013-07-07 22:30:00,
2013-07-07 18:32:00,87.5,75.2,30.01,SE,146,4.0,15.0,67,0.00,,,0.05,Wunderground v.1.15,2013-07-07 22:32:00,
2013-07-07 18:33:00,87.4,75.1,30.01,East,86,4.0,15.0,67,0.00,,,0.05,Wunderground v.1.15,2013-07-07 22:33:00,
2013-07-07 18:34:00,87.3,75.0,30.01,ESE,121,4.0,15.0,67,0.00,,,0.05,Wunderground v.1.15,2013-07-07 22:34:00,
2013-07-07 18:36:00,87.2,75.3,30.01,SE,136,3.0,15.0,68,0.00,,,0.05,Wunderground v.1.15,2013-07-07 22:36:00,
2013-07-07 18:39:00,86.8,75.0,30.01,SSE,163,4.0,15.0,68,0.00,,,0.05,Wunderground v.1.15,2013-07-07 22:39:00,
2013-07-07 18:41:00,86.7,74.9,30.01,NE,52,4.0,15.0,68,0.00,,,0.05,Wunderground v.1.15,2013-07-07 22:41:00,
2013-07-07 18:43:00,86.8,75.0,30.01,SSW,196,4.0,15.0,68,0.00,,,0.05,Wunderground v.1.15,2013-07-07 22:43:00,
2013-07-07 18:45:00,86.7,75.3,30.01,SE,141,5.0,15.0,69,0.00,,,0.05,Wunderground v.1.15,2013-07-07 22:45:00,
2013-07-07 18:47:00,86.4,75.0,30.01,ENE,72,5.0,15.0,69,0.00,,,0.05,Wunderground v.1.15,2013-07-07 22:47:00,
2013-07-07 18:52:00,85.6,75.1,30.01,SSE,157,5.0,15.0,71,0.00,,,0.05,Wunderground v.1.15,2013-07-07 22:52:00,
2013-07-07 18:53:00,85.5,75.0,30.01,East,84,5.0,15.0,71,0.00,,,0.05,Wunderground v.1.15,2013-07-07 22:53:00,
2013-07-07 18:55:00,85.2,75.1,30.01,SE,131,5.0,15.0,72,0.00,,,0.05,Wunderground v.1.15,2013-07-07 22:55:00,
2013-07-07 18:56:00,85.1,75.1,30.01,ENE,75,5.0,15.0,72,0.00,,,0.05,Wunderground v.1.15,2013-07-07 22:56:00,
2013-07-07 18:59:00,84.8,75.2,30.01,ESE,115,5.0,15.0,73,0.00,,,0.05,Wunderground v.1.15,2013-07-07 22:59:00,
2013-07-07 19:00:00,84.7,75.5,30.01,ESE,107,5.0,8.0,74,0.00,,,0.05,Wunderground v.1.15,2013-07-07 23:00:00,
2013-07-07 19:02:00,84.7,75.5,30.01,SE,130,5.0,8.0,74,0.00,,,0.05,Wunderground v.1.15,2013-07-07 23:02:00,
2013-07-07 19:06:00,84.7,75.1,30.01,NE,54,5.0,8.0,73,0.00,,,0.05,Wunderground v.1.15,2013-07-07 23:06:00,
2013-07-07 19:07:00,84.8,74.8,30.01,SSE,157,5.0,8.0,72,0.00,,,0.05,Wunderground v.1.15,2013-07-07 23:07:00,
2013-07-07 19:08:00,84.8,74.8,30.01,East,89,5.0,8.0,72,0.00,,,0.05,Wunderground v.1.15,2013-07-07 23:08:00,
2013-07-07 19:09:00,84.9,74.9,30.01,ENE,73,4.0,8.0,72,0.00,,,0.05,Wunderground v.1.15,2013-07-07 23:09:00,
2013-07-07 19:10:00,85.0,75.0,30.01,SE,134,4.0,6.0,72,0.00,,,0.05,Wunderground v.1.15,2013-07-07 23:10:00,
2013-07-07 19:13:00,85.0,73.7,30.01,ENE,69,5.0,10.0,69,0.00,,,0.05,Wunderground v.1.15,2013-07-07 23:13:00,
2013-07-07 19:14:00,85.0,73.3,30.02,NE,46,4.0,10.0,68,0.00,,,0.05,Wunderground v.1.15,2013-07-07 23:14:00,
2013-07-07 19:15:00,85.0,73.3,30.02,SE,136,5.0,10.0,68,0.00,,,0.05,Wunderground v.1.15,2013-07-07 23:15:00,
2013-07-07 19:16:00,85.0,73.3,30.02,East,86,5.0,10.0,68,0.00,,,0.05,Wunderground v.1.15,2013-07-07 23:16:00,
2013-07-07 19:19:00,85.1,72.9,30.02,ESE,115,5.0,10.0,67,0.00,,,0.05,Wunderground v.1.15,2013-07-07 23:19:00,
2013-07-07 19:21:00,85.1,72.9,30.02,SE,136,5.0,6.0,67,0.00,,,0.05,Wunderground v.1.15,2013-07-07 23:21:00,
2013-07-07 19:22:00,85.1,72.9,30.02,ENE,75,5.0,6.0,67,0.00,,,0.05,Wunderground v.1.15,2013-07-07 23:22:00,
2013-07-07 19:23:00,85.1,73.3,30.02,East,96,5.0,6.0,68,0.00,,,0.05,Wunderground v.1.15,2013-07-07 23:23:00,
2013-07-07 19:26:00,85.2,73.4,30.02,ENE,71,5.0,7.0,68,0.00,,,0.05,Wunderground v.1.15,2013-07-07 23:26:00,
2013-07-07 19:28:00,85.2,73.9,30.02,South,179,4.0,7.0,69,0.00,,,0.05,Wunderground v.1.15,2013-07-07 23:28:00,
2013-07-07 19:29:00,85.1,73.8,30.02,ENE,70,4.0,7.0,69,0.00,,,0.05,Wunderground v.1.15,2013-07-07 23:29:00,
2013-07-07 19:30:00,85.1,73.8,30.02,ENE,70,4.0,7.0,69,0.00,,,0.05,Wunderground v.1.15,2013-07-07 23:30:00,
2013-07-07 19:32:00,85.0,73.7,30.02,SE,141,4.0,13.0,69,0.00,,,0.05,Wunderground v.1.15,2013-07-07 23:32:00,
2013-07-07 19:36:00,84.8,73.1,30.02,ENE,63,4.0,13.0,68,0.00,,,0.05,Wunderground v.1.15,2013-07-07 23:36:00,
2013-07-07 19:37:00,84.8,73.1,30.02,ESE,109,4.0,13.0,68,0.00,,,0.05,Wunderground v.1.15,2013-07-07 23:37:00,
2013-07-07 19:38:00,84.8,73.1,30.02,ESE,114,4.0,13.0,68,0.00,,,0.05,Wunderground v.1.15,2013-07-07 23:38:00,
2013-07-07 19:40:00,84.8,73.5,30.02,ENE,72,4.0,13.0,69,0.00,,,0.05,Wunderground v.1.15,2013-07-07 23:40:00,
2013-07-07 19:43:00,84.7,73.4,30.02,ESE,105,4.0,13.0,69,0.00,,,0.05,Wunderground v.1.15,2013-07-07 23:43:00,
2013-07-07 19:45:00,84.6,73.7,30.02,SE,134,4.0,13.0,70,0.00,,,0.05,Wunderground v.1.15,2013-07-07 23:45:00,
2013-07-07 19:46:00,84.6,73.7,30.02,NE,53,4.0,13.0,70,0.00,,,0.05,Wunderground v.1.15,2013-07-07 23:46:00,
2013-07-07 19:49:00,84.5,73.6,30.02,ENE,72,4.0,13.0,70,0.00,,,0.05,Wunderground v.1.15,2013-07-07 23:49:00,
2013-07-07 19:52:00,84.4,73.5,30.02,ESE,106,3.0,13.0,70,0.00,,,0.05,Wunderground v.1.15,2013-07-07 23:52:00,
2013-07-07 19:53:00,84.3,73.9,30.02,SE,129,3.0,13.0,71,0.00,,,0.05,Wunderground v.1.15,2013-07-07 23:53:00,
2013-07-07 19:56:00,84.2,73.3,30.02,NE,55,3.0,13.0,70,0.00,,,0.05,Wunderground v.1.15,2013-07-07 23:56:00,
2013-07-07 19:57:00,84.1,73.3,30.02,ENE,62,4.0,13.0,70,0.00,,,0.05,Wunderground v.1.15,2013-07-07 23:57:00,
2013-07-07 19:58:00,84.1,73.3,30.02,East,84,4.0,13.0,70,0.00,,,0.05,Wunderground v.1.15,2013-07-07 23:58:00,
2013-07-07 20:01:00,83.9,73.1,30.02,East,97,4.0,4.0,70,0.00,,,0.05,Wunderground v.1.15,2013-07-08 00:01:00,
2013-07-07 20:03:00,83.9,73.1,30.02,NE,56,4.0,6.0,70,0.00,,,0.05,Wunderground v.1.15,2013-07-08 00:03:00,
2013-07-07 20:05:00,83.8,73.4,30.02,ENE,78,5.0,6.0,71,0.00,,,0.05,Wunderground v.1.15,2013-07-08 00:05:00,
2013-07-07 20:09:00,83.6,73.2,30.02,East,89,4.0,6.0,71,0.00,,,0.05,Wunderground v.1.15,2013-07-08 00:09:00,
2013-07-07 20:11:00,83.5,73.1,30.02,NE,49,4.0,4.0,71,0.00,,,0.05,Wunderground v.1.15,2013-07-08 00:11:00,
2013-07-07 20:12:00,83.5,73.1,30.03,SE,127,4.0,4.0,71,0.00,,,0.05,Wunderground v.1.15,2013-07-08 00:12:00,
2013-07-07 20:15:00,83.4,73.4,30.03,ESE,110,3.0,7.0,72,0.00,,,0.05,Wunderground v.1.15,2013-07-08 00:15:00,
2013-07-07 20:16:00,83.4,73.4,30.03,SE,132,4.0,7.0,72,0.00,,,0.05,Wunderground v.1.15,2013-07-08 00:16:00,
2013-07-07 20:17:00,83.3,73.7,30.03,ENE,77,4.0,7.0,73,0.00,,,0.05,Wunderground v.1.15,2013-07-08 00:17:00,
2013-07-07 20:19:00,83.3,73.7,30.03,East,96,4.0,7.0,73,0.00,,,0.05,Wunderground v.1.15,2013-07-08 00:19:00,
2013-07-07 20:20:00,83.2,73.6,30.03,East,94,4.0,4.0,73,0.00,,,0.05,Wunderground v.1.15,2013-07-08 00:20:00,
2013-07-07 20:23:00,83.2,73.6,30.03,SE,141,4.0,7.0,73,0.00,,,0.05,Wunderground v.1.15,2013-07-08 00:23:00,
2013-07-07 20:24:00,83.2,73.6,30.03,ENE,70,4.0,7.0,73,0.00,,,0.05,Wunderground v.1.15,2013-07-08 00:24:00,
2013-07-07 20:27:00,83.1,73.9,30.03,ESE,107,3.0,7.0,74,0.00,,,0.05,Wunderground v.1.15,2013-07-08 00:27:00,
2013-07-07 20:28:00,83.1,73.9,30.03,ESE,122,3.0,7.0,74,0.00,,,0.05,Wunderground v.1.15,2013-07-08 00:28:00,
2013-07-07 20:31:00,83.0,73.9,30.03,ENE,75,2.0,13.0,74,0.00,,,0.05,Wunderground v.1.15,2013-07-08 00:31:00,
2013-07-07 20:33:00,82.9,74.2,30.03,ESE,122,2.0,13.0,75,0.00,,,0.05,Wunderground v.1.15,2013-07-08 00:33:00,
2013-07-07 20:35:00,82.9,74.2,30.03,ENE,65,2.0,13.0,75,0.00,,,0.05,Wunderground v.1.15,2013-07-08 00:35:00,
2013-07-07 20:36:00,82.9,74.2,30.03,ESE,113,2.0,13.0,75,0.00,,,0.05,Wunderground v.1.15,2013-07-08 00:36:00,
2013-07-07 20:37:00,82.8,74.1,30.03,East,89,2.0,13.0,75,0.00,,,0.05,Wunderground v.1.15,2013-07-08 00:37:00,
2013-07-07 20:40:00,82.8,74.5,30.03,South,171,2.0,2.0,76,0.00,,,0.05,Wunderground v.1.15,2013-07-08 00:40:00,
2013-07-07 20:43:00,82.7,74.4,30.04,East,98,2.0,13.0,76,0.00,,,0.05,Wunderground v.1.15,2013-07-08 00:43:00,
2013-07-07 20:45:00,82.7,74.4,30.04,ENE,69,2.0,13.0,76,0.00,,,0.05,Wunderground v.1.15,2013-07-08 00:45:00,
2013-07-07 20:47:00,82.6,74.3,30.04,ENE,75,2.0,13.0,76,0.00,,,0.05,Wunderground v.1.15,2013-07-08 00:47:00,
2013-07-07 20:48:00,82.6,74.3,30.04,ENE,61,2.0,13.0,76,0.00,,,0.05,Wunderground v.1.15,2013-07-08 00:48:00,
2013-07-07 20:49:00,82.6,74.3,30.04,ESE,118,2.0,13.0,76,0.00,,,0.05,Wunderground v.1.15,2013-07-08 00:49:00,
2013-07-07 20:50:00,82.6,74.3,30.04,East,96,2.0,13.0,76,0.00,,,0.05,Wunderground v.1.15,2013-07-08 00:50:00,
2013-07-07 20:53:00,82.6,74.3,30.04,ENE,63,2.0,13.0,76,0.00,,,0.05,Wunderground v.1.15,2013-07-08 00:53:00,
2013-07-07 20:54:00,82.6,74.3,30.04,ENE,76,2.0,13.0,76,0.00,,,0.05,Wunderground v.1.15,2013-07-08 00:54:00,
2013-07-07 20:56:00,82.6,74.3,30.04,ENE,72,2.0,13.0,76,0.00,,,0.05,Wunderground v.1.15,2013-07-08 00:56:00,
2013-07-07 20:57:00,82.6,74.3,30.04,East,83,2.0,13.0,76,0.00,,,0.05,Wunderground v.1.15,2013-07-08 00:57:00,
2013-07-07 21:01:00,82.5,74.2,30.04,ENE,72,2.0,3.0,76,0.00,,,0.05,Wunderground v.1.15,2013-07-08 01:01:00,
2013-07-07 21:02:00,82.5,74.2,30.04,NE,51,2.0,3.0,76,0.00,,,0.05,Wunderground v.1.15,2013-07-08 01:02:00,
2013-07-07 21:06:00,82.5,74.2,30.04,ENE,71,2.0,4.0,76,0.00,,,0.05,Wunderground v.1.15,2013-07-08 01:06:00,
2013-07-07 21:08:00,82.5,74.2,30.04,ENE,78,2.0,4.0,76,0.00,,,0.05,Wunderground v.1.15,2013-07-08 01:08:00,
2013-07-07 21:09:00,82.5,74.2,30.04,ESE,117,2.0,4.0,76,0.00,,,0.05,Wunderground v.1.15,2013-07-08 01:09:00,
2013-07-07 21:11:00,82.5,74.6,30.04,SE,127,3.0,3.0,77,0.00,,,0.05,Wunderground v.1.15,2013-07-08 01:11:00,
2013-07-07 21:13:00,82.4,74.5,30.04,ENE,71,2.0,4.0,77,0.00,,,0.05,Wunderground v.1.15,2013-07-08 01:13:00,
2013-07-07 21:15:00,82.5,74.6,30.04,ESE,108,2.0,4.0,77,0.00,,,0.05,Wunderground v.1.15,2013-07-08 01:15:00,
2013-07-07 21:16:00,82.4,74.5,30.04,ESE,122,2.0,4.0,77,0.00,,,0.05,Wunderground v.1.15,2013-07-08 01:16:00,
2013-07-07 21:19:00,82.4,74.5,30.04,ENE,63,2.0,4.0,77,0.00,,,0.05,Wunderground v.1.15,2013-07-08 01:19:00,
2013-07-07 21:20:00,82.4,74.1,30.04,ESE,113,2.0,3.0,76,0.00,,,0.05,Wunderground v.1.15,2013-07-08 01:20:00,
2013-07-07 21:22:00,82.5,74.2,30.05,SE,135,2.0,5.0,76,0.00,,,0.05,Wunderground v.1.15,2013-07-08 01:22:00,
2013-07-07 21:24:00,82.5,74.2,30.04,East,96,3.0,5.0,76,0.00,,,0.05,Wunderground v.1.15,2013-07-08 01:24:00,
2013-07-07 21:25:00,82.5,74.2,30.04,SE,144,2.0,5.0,76,0.00,,,0.05,Wunderground v.1.15,2013-07-08 01:25:00,
2013-07-07 21:26:00,82.4,74.1,30.04,East,82,2.0,5.0,76,0.00,,,0.05,Wunderground v.1.15,2013-07-08 01:26:00,
2013-07-07 21:29:00,82.4,74.1,30.05,SE,134,3.0,5.0,76,0.00,,,0.05,Wunderground v.1.15,2013-07-08 01:29:00,
2013-07-07 21:30:00,82.4,74.1,30.05,SE,139,3.0,3.0,76,0.00,,,0.05,Wunderground v.1.15,2013-07-08 01:30:00,
2013-07-07 21:31:00,82.4,74.1,30.05,East,93,3.0,10.0,76,0.00,,,0.05,Wunderground v.1.15,2013-07-08 01:31:00,
2013-07-07 21:32:00,82.4,74.1,30.05,SE,127,3.0,10.0,76,0.00,,,0.05,Wunderground v.1.15,2013-07-08 01:32:00,
2013-07-07 21:34:00,82.4,74.1,30.05,East,89,2.0,10.0,76,0.00,,,0.05,Wunderground v.1.15,2013-07-08 01:34:00,
2013-07-07 21:36:00,82.4,74.1,30.05,ESE,110,2.0,10.0,76,0.00,,,0.05,Wunderground v.1.15,2013-07-08 01:36:00,
2013-07-07 21:38:00,82.4,74.1,30.05,East,96,2.0,10.0,76,0.00,,,0.05,Wunderground v.1.15,2013-07-08 01:38:00,
2013-07-07 21:39:00,82.3,74.0,30.05,ENE,67,2.0,10.0,76,0.00,,,0.05,Wunderground v.1.15,2013-07-08 01:39:00,
2013-07-07 21:41:00,82.4,74.1,30.05,SE,146,2.0,10.0,76,0.00,,,0.05,Wunderground v.1.15,2013-07-08 01:41:00,
2013-07-07 21:42:00,82.4,74.5,30.05,SSE,155,2.0,10.0,77,0.00,,,0.05,Wunderground v.1.15,2013-07-08 01:42:00,
2013-07-07 21:44:00,82.3,74.4,30.05,ENE,63,3.0,10.0,77,0.00,,,0.05,Wunderground v.1.15,2013-07-08 01:44:00,
2013-07-07 21:47:00,82.3,74.4,30.05,East,84,3.0,10.0,77,0.00,,,0.05,Wunderground v.1.15,2013-07-08 01:47:00,
2013-07-07 21:48:00,82.3,74.4,30.05,ESE,103,3.0,10.0,77,0.00,,,0.05,Wunderground v.1.15,2013-07-08 01:48:00,
2013-07-07 21:49:00,82.3,74.4,30.05,ESE,106,3.0,10.0,77,0.00,,,0.05,Wunderground v.1.15,2013-07-08 01:49:00,
2013-07-07 21:50:00,82.3,74.4,30.05,SE,128,3.0,3.0,77,0.00,,,0.05,Wunderground v.1.15,2013-07-08 01:50:00,
2013-07-07 21:54:00,82.3,74.4,30.05,ESE,110,3.0,10.0,77,0.00,,,0.05,Wunderground v.1.15,2013-07-08 01:54:00,
2013-07-07 21:56:00,82.3,74.4,30.05,ENE,77,3.0,10.0,77,0.00,,,0.05,Wunderground v.1.15,2013-07-08 01:56:00,
2013-07-07 21:57:00,82.3,74.4,30.05,SSE,148,3.0,10.0,77,0.00,,,0.05,Wunderground v.1.15,2013-07-08 01:57:00,
2013-07-07 21:58:00,82.3,74.4,30.05,East,96,3.0,10.0,77,0.00,,,0.05,Wunderground v.1.15,2013-07-08 01:58:00,
2013-07-07 22:01:00,82.2,74.3,30.05,SE,133,3.0,5.0,77,0.00,,,0.05,Wunderground v.1.15,2013-07-08 02:01:00,
2013-07-07 22:02:00,82.2,74.3,30.05,East,85,3.0,5.0,77,0.00,,,0.05,Wunderground v.1.15,2013-07-08 02:02:00,
2013-07-07 22:03:00,82.2,74.3,30.05,SE,133,3.0,5.0,77,0.00,,,0.05,Wunderground v.1.15,2013-07-08 02:03:00,
2013-07-07 22:04:00,82.2,74.3,30.05,East,81,3.0,5.0,77,0.00,,,0.05,Wunderground v.1.15,2013-07-08 02:04:00,
2013-07-07 22:08:00,82.2,74.3,30.05,East,96,3.0,5.0,77,0.00,,,0.05,Wunderground v.1.15,2013-07-08 02:08:00,
2013-07-07 22:09:00,82.2,74.3,30.05,East,85,3.0,5.0,77,0.00,,,0.05,Wunderground v.1.15,2013-07-08 02:09:00,
2013-07-07 22:10:00,82.1,74.6,30.05,East,101,3.0,3.0,78,0.00,,,0.05,Wunderground v.1.15,2013-07-08 02:10:00,
2013-07-07 22:14:00,82.1,74.6,30.06,SE,140,2.0,3.0,78,0.00,,,0.05,Wunderground v.1.15,2013-07-08 02:14:00,
2013-07-07 22:15:00,82.1,74.6,30.06,ESE,105,2.0,3.0,78,0.00,,,0.05,Wunderground v.1.15,2013-07-08 02:15:00,
2013-07-07 22:19:00,82.1,74.6,30.06,SE,127,2.0,4.0,78,0.00,,,0.05,Wunderground v.1.15,2013-07-08 02:19:00,
2013-07-07 22:21:00,82.0,74.5,30.06,ENE,69,2.0,3.0,78,0.00,,,0.05,Wunderground v.1.15,2013-07-08 02:21:00,
2013-07-07 22:24:00,81.9,74.4,30.06,East,79,2.0,3.0,78,0.00,,,0.05,Wunderground v.1.15,2013-07-08 02:24:00,
2013-07-07 22:26:00,81.9,74.4,30.06,ESE,105,2.0,3.0,78,0.00,,,0.05,Wunderground v.1.15,2013-07-08 02:26:00,
2013-07-07 22:27:00,81.9,74.4,30.06,ENE,76,2.0,3.0,78,0.00,,,0.05,Wunderground v.1.15,2013-07-08 02:27:00,
2013-07-07 22:29:00,81.8,74.3,30.06,ESE,115,1.0,3.0,78,0.00,,,0.05,Wunderground v.1.15,2013-07-08 02:29:00,
2013-07-07 22:30:00,81.8,74.3,30.06,ENE,68,2.0,2.0,78,0.00,,,0.05,Wunderground v.1.15,2013-07-08 02:30:00,
2013-07-07 22:31:00,81.8,74.3,30.06,SSE,150,2.0,7.0,78,0.00,,,0.05,Wunderground v.1.15,2013-07-08 02:31:00,
2013-07-07 22:34:00,81.7,74.5,30.06,East,80,2.0,7.0,79,0.00,,,0.05,Wunderground v.1.15,2013-07-08 02:34:00,
2013-07-07 22:36:00,81.7,74.5,30.06,ESE,105,2.0,7.0,79,0.00,,,0.05,Wunderground v.1.15,2013-07-08 02:36:00,
2013-07-07 22:38:00,81.7,74.5,30.06,SE,124,2.0,7.0,79,0.00,,,0.05,Wunderground v.1.15,2013-07-08 02:38:00,
2013-07-07 22:42:00,81.7,74.5,30.07,ENE,67,2.0,7.0,79,0.00,,,0.05,Wunderground v.1.15,2013-07-08 02:42:00,
2013-07-07 22:43:00,81.7,74.5,30.07,East,96,2.0,7.0,79,0.00,,,0.05,Wunderground v.1.15,2013-07-08 02:43:00,
2013-07-07 22:44:00,81.7,74.5,30.07,ENE,68,2.0,7.0,79,0.00,,,0.05,Wunderground v.1.15,2013-07-08 02:44:00,
2013-07-07 22:45:00,81.7,74.5,30.07,NE,53,2.0,7.0,79,0.00,,,0.05,Wunderground v.1.15,2013-07-08 02:45:00,
2013-07-07 22:49:00,81.7,74.5,30.07,ENE,75,2.0,7.0,79,0.00,,,0.05,Wunderground v.1.15,2013-07-08 02:49:00,
2013-07-07 22:50:00,81.7,74.5,30.07,East,81,2.0,7.0,79,0.00,,,0.05,Wunderground v.1.15,2013-07-08 02:50:00,
2013-07-07 22:55:00,81.7,74.5,30.07,ENE,77,2.0,7.0,79,0.00,,,0.05,Wunderground v.1.15,2013-07-08 02:55:00,
2013-07-07 22:56:00,81.7,74.5,30.07,ESE,117,2.0,7.0,79,0.00,,,0.05,Wunderground v.1.15,2013-07-08 02:56:00,
2013-07-07 22:57:00,81.7,74.5,30.07,SE,129,2.0,7.0,79,0.00,,,0.05,Wunderground v.1.15,2013-07-08 02:57:00,
2013-07-07 22:58:00,81.7,74.5,30.07,East,86,2.0,7.0,79,0.00,,,0.05,Wunderground v.1.15,2013-07-08 02:58:00,
2013-07-07 23:02:00,81.6,74.8,30.08,ESE,114,2.0,5.0,80,0.00,,,0.05,Wunderground v.1.15,2013-07-08 03:02:00,
2013-07-07 23:05:00,81.6,74.8,30.08,SE,138,2.0,5.0,80,0.00,,,0.05,Wunderground v.1.15,2013-07-08 03:05:00,
2013-07-07 23:08:00,81.7,74.9,30.08,SE,140,2.0,5.0,80,0.00,,,0.05,Wunderground v.1.15,2013-07-08 03:08:00,
2013-07-07 23:09:00,81.7,74.9,30.08,SE,127,2.0,5.0,80,0.00,,,0.05,Wunderground v.1.15,2013-07-08 03:09:00,
2013-07-07 23:12:00,81.7,74.9,30.08,SE,134,2.0,3.0,80,0.00,,,0.05,Wunderground v.1.15,2013-07-08 03:12:00,
2013-07-07 23:16:00,81.7,74.9,30.08,ESE,112,2.0,3.0,80,0.00,,,0.05,Wunderground v.1.15,2013-07-08 03:16:00,
2013-07-07 23:18:00,81.7,74.9,30.08,East,86,2.0,3.0,80,0.00,,,0.05,Wunderground v.1.15,2013-07-08 03:18:00,
2013-07-07 23:20:00,81.7,74.5,30.08,NE,56,2.0,4.0,79,0.00,,,0.05,Wunderground v.1.15,2013-07-08 03:20:00,
2013-07-07 23:22:00,81.7,74.5,30.08,SE,130,2.0,4.0,79,0.00,,,0.05,Wunderground v.1.15,2013-07-08 03:22:00,
2013-07-07 23:24:00,81.7,74.5,30.08,ENE,75,2.0,4.0,79,0.00,,,0.05,Wunderground v.1.15,2013-07-08 03:24:00,
2013-07-07 23:27:00,81.7,74.5,30.08,ENE,58,2.0,4.0,79,0.00,,,0.05,Wunderground v.1.15,2013-07-08 03:27:00,
2013-07-07 23:28:00,81.7,74.5,30.08,East,84,2.0,4.0,79,0.00,,,0.05,Wunderground v.1.15,2013-07-08 03:28:00,
2013-07-07 23:29:00,81.7,74.5,30.08,ENE,78,2.0,4.0,79,0.00,,,0.05,Wunderground v.1.15,2013-07-08 03:29:00,
2013-07-07 23:31:00,81.7,74.5,30.08,ESE,120,2.0,7.0,79,0.00,,,0.05,Wunderground v.1.15,2013-07-08 03:31:00,
2013-07-07 23:35:00,81.7,74.5,30.08,ESE,103,2.0,7.0,79,0.00,,,0.05,Wunderground v.1.15,2013-07-08 03:35:00,
2013-07-07 23:36:00,81.7,74.5,30.08,East,100,2.0,7.0,79,0.00,,,0.05,Wunderground v.1.15,2013-07-08 03:36:00,
2013-07-07 23:37:00,81.7,74.5,30.08,East,89,2.0,7.0,79,0.00,,,0.05,Wunderground v.1.15,2013-07-08 03:37:00,
2013-07-07 23:38:00,81.7,74.2,30.08,ENE,76,2.0,7.0,78,0.00,,,0.05,Wunderground v.1.15,2013-07-08 03:38:00,
2013-07-07 23:43:00,81.7,74.2,30.08,SE,129,2.0,7.0,78,0.00,,,0.05,Wunderground v.1.15,2013-07-08 03:43:00,
2013-07-07 23:44:00,81.7,74.2,30.08,ESE,119,2.0,7.0,78,0.00,,,0.05,Wunderground v.1.15,2013-07-08 03:44:00,
2013-07-07 23:46:00,81.7,74.2,30.08,East,84,2.0,7.0,78,0.00,,,0.05,Wunderground v.1.15,2013-07-08 03:46:00,
2013-07-07 23:47:00,81.7,74.2,30.08,SE,139,1.0,7.0,78,0.00,,,0.05,Wunderground v.1.15,2013-07-08 03:47:00,
2013-07-07 23:50:00,81.7,74.2,30.08,ESE,114,1.0,1.0,78,0.00,,,0.05,Wunderground v.1.15,2013-07-08 03:50:00,
2013-07-07 23:52:00,81.7,74.2,30.08,East,93,1.0,7.0,78,0.00,,,0.05,Wunderground v.1.15,2013-07-08 03:52:00,
2013-07-07 23:53:00,81.7,74.2,30.08,SE,124,1.0,7.0,78,0.00,,,0.05,Wunderground v.1.15,2013-07-08 03:53:00,
2013-07-07 23:54:00,81.7,74.2,30.08,ESE,120,1.0,7.0,78,0.00,,,0.05,Wunderground v.1.15,2013-07-08 03:54:00,
2013-07-07 23:56:00,81.6,74.1,30.08,ESE,111,1.0,7.0,78,0.00,,,0.05,Wunderground v.1.15,2013-07-08 03:56:00,
2013-07-07 23:58:00,81.6,74.1,30.08,ENE,76,1.0,7.0,78,0.00,,,0.05,Wunderground v.1.15,2013-07-08 03:58:00,